Observation data for Lomax on 02/12/2018      Previous  Date  Next       Current Mesonet Observations  Soil Data  Daily Summary Page  Observations in Plain Language
KLO1 120600Z 12005KT M02/M13 A3027 RMK A01 T10191127  RH  044%=      5-min Rain = 0
KLO1 120601Z 11005KT M02/M13 A3027 RMK A01 T10191127  RH  043%=      5-min Rain = 0
KLO1 120602Z 11005KT M02/M13 A3027 RMK A01 T10201128  RH  043%=      5-min Rain = 0
KLO1 120603Z 11005KT M02/M13 A3027 RMK A01 T10201128  RH  044%=      5-min Rain = 0
KLO1 120604Z 11004KT M02/M13 A3027 RMK A01 T10201127  RH  044%=      5-min Rain = 0
KLO1 120605Z 11004KT M02/M13 A3027 RMK A01 T10201128  RH  044%=      5-min Rain = 0
KLO1 120606Z 11004KT M02/M13 A3027 RMK A01 T10211128  RH  044%=      5-min Rain = 0
KLO1 120607Z 11004KT M02/M13 A3027 RMK A01 T10211128  RH  044%=      5-min Rain = 0
KLO1 120608Z 11004KT M02/M13 A3027 RMK A01 T10211128  RH  044%=      5-min Rain = 0
KLO1 120609Z 11004KT M02/M13 A3027 RMK A01 T10221129  RH  044%=      5-min Rain = 0
KLO1 120610Z 11004KT M02/M13 A3027 RMK A01 T10221129  RH  044%=      5-min Rain = 0
KLO1 120611Z 11004KT M02/M13 A3027 RMK A01 T10231129  RH  044%=      5-min Rain = 0
KLO1 120612Z 11004KT M02/M13 A3027 RMK A01 T10231129  RH  044%=      5-min Rain = 0
KLO1 120613Z 11004KT M02/M13 A3027 RMK A01 T10231128  RH  044%=      5-min Rain = 0
KLO1 120614Z 11005KT M02/M13 A3027 RMK A01 T10231128  RH  044%=      5-min Rain = 0
KLO1 120615Z 12005KT M02/M13 A3027 RMK A01 T10231128  RH  044%=      5-min Rain = 0
KLO1 120616Z 11005KT M02/M13 A3027 RMK A01 T10241129  RH  044%=      5-min Rain = 0
KLO1 120617Z 11005KT M03/M13 A3027 RMK A01 T10251130  RH  044%=      5-min Rain = 0
KLO1 120618Z 11005KT M03/M13 A3027 RMK A01 T10251130  RH  044%=      5-min Rain = 0
KLO1 120619Z 11005KT M03/M13 A3027 RMK A01 T10261130  RH  044%=      5-min Rain = 0
KLO1 120620Z 11005KT M03/M13 A3027 RMK A01 T10261130  RH  045%=      5-min Rain = 0
KLO1 120621Z 11005KT M03/M13 A3027 RMK A01 T10261131  RH  045%=      5-min Rain = 0
KLO1 120622Z 12006KT M03/M13 A3027 RMK A01 T10271131  RH  044%=      5-min Rain = 0
KLO1 120623Z 12006KT M03/M13 A3027 RMK A01 T10271131  RH  045%=      5-min Rain = 0
KLO1 120624Z 11005KT M03/M13 A3027 RMK A01 T10271131  RH  045%=      5-min Rain = 0
KLO1 120625Z 11006KT M03/M13 A3027 RMK A01 T10271131  RH  045%=      5-min Rain = 0
KLO1 120626Z 11006KT M03/M13 A3027 RMK A01 T10271131  RH  045%=      5-min Rain = 0
KLO1 120627Z 11006KT M03/M13 A3027 RMK A01 T10271131  RH  045%=      5-min Rain = 0
KLO1 120628Z 11006KT M03/M13 A3027 RMK A01 T10261129  RH  045%=      5-min Rain = 0
KLO1 120629Z 11006KT M03/M13 A3027 RMK A01 T10261129  RH  045%=      5-min Rain = 0
KLO1 120630Z 11006KT M03/M13 A3027 RMK A01 T10251129  RH  045%=      5-min Rain = 0
KLO1 120631Z 11006KT M03/M13 A3027 RMK A01 T10251129  RH  045%=      5-min Rain = 0
KLO1 120632Z 11006KT M03/M13 A3027 RMK A01 T10251129  RH  045%=      5-min Rain = 0
KLO1 120633Z 11005KT M03/M13 A3027 RMK A01 T10251129  RH  045%=      5-min Rain = 0
KLO1 120634Z 11006KT M03/M13 A3027 RMK A01 T10251129  RH  045%=      5-min Rain = 0
KLO1 120635Z 11006KT M03/M13 A3027 RMK A01 T10251129  RH  045%=      5-min Rain = 0
KLO1 120636Z 11006KT M03/M13 A3027 RMK A01 T10261130  RH  045%=      5-min Rain = 0
KLO1 120637Z 10006KT M03/M13 A3027 RMK A01 T10261130  RH  045%=      5-min Rain = 0
KLO1 120638Z 10005KT M03/M13 A3027 RMK A01 T10271130  RH  045%=      5-min Rain = 0
KLO1 120639Z 10005KT M03/M13 A3027 RMK A01 T10271130  RH  045%=      5-min Rain = 0
KLO1 120640Z 10005KT M03/M13 A3027 RMK A01 T10271130  RH  045%=      5-min Rain = 0
KLO1 120641Z 10004KT M03/M13 A3027 RMK A01 T10281131  RH  045%=      5-min Rain = 0
KLO1 120642Z 10004KT M03/M13 A3027 RMK A01 T10281130  RH  045%=      5-min Rain = 0
KLO1 120643Z 10004KT M03/M13 A3027 RMK A01 T10281131  RH  045%=      5-min Rain = 0
KLO1 120644Z 10004KT M03/M13 A3027 RMK A01 T10281130  RH  045%=      5-min Rain = 0
KLO1 120645Z 10004KT M03/M13 A3027 RMK A01 T10281130  RH  045%=      5-min Rain = 0
KLO1 120646Z 10004KT M03/M13 A3027 RMK A01 T10291131  RH  045%=      5-min Rain = 0
KLO1 120647Z 10005KT M03/M13 A3027 RMK A01 T10291130  RH  045%=      5-min Rain = 0
KLO1 120648Z 10005KT M03/M13 A3027 RMK A01 T10291131  RH  046%=      5-min Rain = 0
KLO1 120649Z 10005KT M03/M13 A3027 RMK A01 T10291131  RH  046%=      5-min Rain = 0
KLO1 120650Z 10005KT M03/M13 A3027 RMK A01 T10301131  RH  046%=      5-min Rain = 0
KLO1 120651Z 10005KT M03/M13 A3027 RMK A01 T10301131  RH  046%=      5-min Rain = 0
KLO1 120652Z 10005KT M03/M13 A3027 RMK A01 T10311131  RH  046%=      5-min Rain = 0
KLO1 120653Z 10005KT M03/M13 A3027 RMK A01 T10311131  RH  046%=      5-min Rain = 0
KLO1 120654Z 10004KT M03/M13 A3027 RMK A01 T10321131  RH  046%=      5-min Rain = 0
KLO1 120655Z 11004KT M03/M13 A3027 RMK A01 T10321131  RH  046%=      5-min Rain = 0
KLO1 120656Z 11004KT M03/M13 A3027 RMK A01 T10321132  RH  046%=      5-min Rain = 0
KLO1 120657Z 11004KT M03/M13 A3027 RMK A01 T10331132  RH  046%=      5-min Rain = 0
KLO1 120658Z 11003KT M03/M13 A3027 RMK A01 T10331132  RH  046%=      5-min Rain = 0
KLO1 120659Z 12003KT M03/M13 A3027 RMK A01 T10331133  RH  046%=      5-min Rain = 0
KLO1 120700Z 12002KT M03/M13 A3027 RMK A01 T10341133  RH  046%=      5-min Rain = 0
KLO1 120701Z 13002KT M03/M13 A3027 RMK A01 T10341133  RH  046%=      5-min Rain = 0
KLO1 120702Z 12003KT M03/M13 A3027 RMK A01 T10341134  RH  046%=      5-min Rain = 0
KLO1 120703Z 12003KT M04/M13 A3027 RMK A01 T10351134  RH  046%=      5-min Rain = 0
KLO1 120704Z 11003KT M04/M13 A3027 RMK A01 T10351134  RH  046%=      5-min Rain = 0
KLO1 120705Z 12003KT M04/M13 A3027 RMK A01 T10351134  RH  046%=      5-min Rain = 0
KLO1 120706Z 12003KT M04/M14 A3027 RMK A01 T10361135  RH  046%=      5-min Rain = 0
KLO1 120707Z 12003KT M04/M14 A3027 RMK A01 T10361135  RH  046%=      5-min Rain = 0
KLO1 120708Z 13004KT M04/M14 A3027 RMK A01 T10361135  RH  046%=      5-min Rain = 0
KLO1 120709Z 13004KT M04/M13 A3028 RMK A01 T10361134  RH  047%=      5-min Rain = 0
KLO1 120710Z 15003KT M04/M13 A3028 RMK A01 T10361134  RH  047%=      5-min Rain = 0
KLO1 120711Z 16004KT M04/M14 A3028 RMK A01 T10371135  RH  046%=      5-min Rain = 0
KLO1 120712Z 15003KT M04/M14 A3028 RMK A01 T10381136  RH  046%=      5-min Rain = 0
KLO1 120713Z 16003KT M04/M14 A3028 RMK A01 T10381136  RH  046%=      5-min Rain = 0
KLO1 120714Z 16004KT M04/M14 A3028 RMK A01 T10381135  RH  047%=      5-min Rain = 0
KLO1 120715Z 15004KT M04/M14 A3028 RMK A01 T10391135  RH  047%=      5-min Rain = 0
KLO1 120716Z 16004KT M04/M13 A3028 RMK A01 T10391134  RH  048%=      5-min Rain = 0
KLO1 120717Z 16004KT M04/M13 A3028 RMK A01 T10401134  RH  048%=      5-min Rain = 0
KLO1 120718Z 17003KT M04/M13 A3028 RMK A01 T10401133  RH  049%=      5-min Rain = 0
KLO1 120719Z 18003KT M04/M13 A3028 RMK A01 T10401130  RH  050%=      5-min Rain = 0
KLO1 120720Z 18003KT M04/M13 A3028 RMK A01 T10401128  RH  051%=      5-min Rain = 0
KLO1 120721Z 18003KT M04/M13 A3028 RMK A01 T10401127  RH  051%=      5-min Rain = 0
KLO1 120722Z 18002KT M04/M13 A3028 RMK A01 T10401127  RH  051%=      5-min Rain = 0
KLO1 120723Z 18002KT M04/M13 A3028 RMK A01 T10411128  RH  051%=      5-min Rain = 0
KLO1 120724Z 17002KT M04/M13 A3028 RMK A01 T10411127  RH  051%=      5-min Rain = 0
KLO1 120725Z 18002KT M04/M13 A3028 RMK A01 T10411126  RH  051%=      5-min Rain = 0
KLO1 120726Z 17003KT M04/M13 A3028 RMK A01 T10411125  RH  052%=      5-min Rain = 0
KLO1 120727Z 17003KT M04/M12 A3028 RMK A01 T10411122  RH  053%=      5-min Rain = 0
KLO1 120728Z 17003KT M04/M12 A3028 RMK A01 T10401121  RH  053%=      5-min Rain = 0
KLO1 120729Z 17003KT M04/M12 A3028 RMK A01 T10401120  RH  054%=      5-min Rain = 0
KLO1 120730Z 17004KT M04/M12 A3028 RMK A01 T10401119  RH  054%=      5-min Rain = 0
KLO1 120731Z 17004KT M04/M12 A3028 RMK A01 T10401119  RH  054%=      5-min Rain = 0
KLO1 120732Z 17004KT M04/M12 A3028 RMK A01 T10411119  RH  054%=      5-min Rain = 0
KLO1 120733Z 16004KT M04/M12 A3028 RMK A01 T10401119  RH  054%=      5-min Rain = 0
KLO1 120734Z 16004KT M04/M12 A3029 RMK A01 T10401118  RH  055%=      5-min Rain = 0
KLO1 120735Z 16004KT M04/M12 A3029 RMK A01 T10401118  RH  054%=      5-min Rain = 0
KLO1 120736Z 15003KT M04/M12 A3029 RMK A01 T10401118  RH  054%=      5-min Rain = 0
KLO1 120737Z 16003KT M04/M12 A3029 RMK A01 T10391119  RH  054%=      5-min Rain = 0
KLO1 120738Z 16003KT M04/M12 A3029 RMK A01 T10391119  RH  054%=      5-min Rain = 0
KLO1 120739Z 16003KT M04/M12 A3029 RMK A01 T10381119  RH  054%=      5-min Rain = 0
KLO1 120740Z 15003KT M04/M12 A3029 RMK A01 T10381118  RH  054%=      5-min Rain = 0
KLO1 120741Z 15003KT M04/M12 A3029 RMK A01 T10381119  RH  053%=      5-min Rain = 0
KLO1 120742Z 14003KT M04/M12 A3029 RMK A01 T10381119  RH  053%=      5-min Rain = 0
KLO1 120743Z 14003KT M04/M12 A3028 RMK A01 T10381119  RH  053%=      5-min Rain = 0
KLO1 120744Z 14003KT M04/M12 A3028 RMK A01 T10381120  RH  053%=      5-min Rain = 0
KLO1 120745Z 14003KT M04/M12 A3028 RMK A01 T10381120  RH  053%=      5-min Rain = 0
KLO1 120746Z 14003KT M04/M12 A3028 RMK A01 T10381120  RH  053%=      5-min Rain = 0
KLO1 120747Z 14003KT M04/M12 A3028 RMK A01 T10381120  RH  053%=      5-min Rain = 0
KLO1 120748Z 14003KT M04/M12 A3028 RMK A01 T10381121  RH  053%=      5-min Rain = 0
KLO1 120749Z 13002KT M04/M12 A3028 RMK A01 T10381119  RH  053%=      5-min Rain = 0
KLO1 120750Z 13002KT M04/M12 A3028 RMK A01 T10381118  RH  054%=      5-min Rain = 0
KLO1 120751Z 13002KT M04/M12 A3028 RMK A01 T10381117  RH  054%=      5-min Rain = 0
KLO1 120752Z 13002KT M04/M12 A3028 RMK A01 T10381118  RH  054%=      5-min Rain = 0
KLO1 120753Z 13002KT M04/M12 A3028 RMK A01 T10381118  RH  054%=      5-min Rain = 0
KLO1 120754Z 13002KT M04/M12 A3028 RMK A01 T10381119  RH  054%=      5-min Rain = 0
KLO1 120755Z 13002KT M04/M12 A3028 RMK A01 T10391119  RH  054%=      5-min Rain = 0
KLO1 120756Z 13002KT M04/M12 A3028 RMK A01 T10391120  RH  053%=      5-min Rain = 0
KLO1 120757Z 13002KT M04/M12 A3028 RMK A01 T10391121  RH  053%=      5-min Rain = 0
KLO1 120758Z 13002KT M04/M12 A3028 RMK A01 T10401122  RH  053%=      5-min Rain = 0
KLO1 120759Z 13001KT M04/M12 A3028 RMK A01 T10411123  RH  053%=      5-min Rain = 0
KLO1 120800Z 13001KT M04/M13 A3028 RMK A01 T10411125  RH  052%=      5-min Rain = 0
KLO1 120801Z 13001KT M04/M13 A3028 RMK A01 T10421126  RH  052%=      5-min Rain = 0
KLO1 120802Z 13001KT M04/M13 A3028 RMK A01 T10421126  RH  052%=      5-min Rain = 0
KLO1 120803Z 13002KT M04/M13 A3028 RMK A01 T10421126  RH  052%=      5-min Rain = 0
KLO1 120804Z 12001KT M04/M13 A3028 RMK A01 T10431126  RH  052%=      5-min Rain = 0
KLO1 120805Z 11002KT M04/M13 A3028 RMK A01 T10431127  RH  052%=      5-min Rain = 0
KLO1 120806Z 11002KT M04/M13 A3028 RMK A01 T10431127  RH  052%=      5-min Rain = 0
KLO1 120807Z 09002KT M04/M13 A3028 RMK A01 T10431127  RH  052%=      5-min Rain = 0
KLO1 120808Z 09002KT M04/M13 A3028 RMK A01 T10421126  RH  052%=      5-min Rain = 0
KLO1 120809Z 08002KT M04/M13 A3028 RMK A01 T10411126  RH  052%=      5-min Rain = 0
KLO1 120810Z 08002KT M04/M13 A3028 RMK A01 T10411128  RH  051%=      5-min Rain = 0
KLO1 120811Z 09001KT M04/M13 A3028 RMK A01 T10411129  RH  050%=      5-min Rain = 0
KLO1 120812Z 10001KT M04/M13 A3029 RMK A01 T10421130  RH  050%=      5-min Rain = 0
KLO1 120813Z 10001KT M04/M13 A3029 RMK A01 T10421130  RH  051%=      5-min Rain = 0
KLO1 120814Z 11002KT M04/M13 A3029 RMK A01 T10421129  RH  051%=      5-min Rain = 0
KLO1 120815Z 11002KT M04/M13 A3029 RMK A01 T10421128  RH  051%=      5-min Rain = 0
KLO1 120816Z 12002KT M04/M13 A3029 RMK A01 T10421128  RH  051%=      5-min Rain = 0
KLO1 120817Z 12002KT M04/M13 A3029 RMK A01 T10421128  RH  051%=      5-min Rain = 0
KLO1 120818Z 13002KT M04/M13 A3029 RMK A01 T10421128  RH  051%=      5-min Rain = 0
KLO1 120819Z 13002KT M04/M13 A3029 RMK A01 T10421127  RH  051%=      5-min Rain = 0
KLO1 120820Z 13002KT M04/M13 A3029 RMK A01 T10411127  RH  051%=      5-min Rain = 0
KLO1 120821Z 13002KT M04/M13 A3029 RMK A01 T10401127  RH  051%=      5-min Rain = 0
KLO1 120822Z 13002KT M04/M13 A3029 RMK A01 T10391127  RH  051%=      5-min Rain = 0
KLO1 120823Z 13002KT M04/M13 A3029 RMK A01 T10391127  RH  050%=      5-min Rain = 0
KLO1 120824Z 13003KT M04/M13 A3029 RMK A01 T10381127  RH  050%=      5-min Rain = 0
KLO1 120825Z 13003KT M04/M13 A3029 RMK A01 T10381128  RH  050%=      5-min Rain = 0
KLO1 120826Z 13003KT M04/M13 A3029 RMK A01 T10381128  RH  049%=      5-min Rain = 0
KLO1 120827Z 13003KT M04/M13 A3029 RMK A01 T10381128  RH  049%=      5-min Rain = 0
KLO1 120828Z 13003KT M04/M13 A3029 RMK A01 T10371128  RH  049%=      5-min Rain = 0
KLO1 120829Z 13003KT M04/M13 A3029 RMK A01 T10371128  RH  049%=      5-min Rain = 0
KLO1 120830Z 13003KT M04/M13 A3029 RMK A01 T10371129  RH  049%=      5-min Rain = 0
KLO1 120831Z 13003KT M04/M13 A3029 RMK A01 T10371129  RH  049%=      5-min Rain = 0
KLO1 120832Z 13002KT M04/M13 A3029 RMK A01 T10371130  RH  048%=      5-min Rain = 0
KLO1 120833Z 13002KT M04/M13 A3029 RMK A01 T10371131  RH  048%=      5-min Rain = 0
KLO1 120834Z 14002KT M04/M13 A3029 RMK A01 T10371131  RH  048%=      5-min Rain = 0
KLO1 120835Z 14002KT M04/M13 A3029 RMK A01 T10381131  RH  048%=      5-min Rain = 0
KLO1 120836Z 14002KT M04/M13 A3029 RMK A01 T10381132  RH  048%=      5-min Rain = 0
KLO1 120837Z 13002KT M04/M13 A3029 RMK A01 T10381132  RH  048%=      5-min Rain = 0
KLO1 120838Z 13002KT M04/M13 A3029 RMK A01 T10381132  RH  048%=      5-min Rain = 0
KLO1 120839Z 13002KT M04/M13 A3029 RMK A01 T10381132  RH  048%=      5-min Rain = 0
KLO1 120840Z 13001KT M04/M13 A3029 RMK A01 T10391132  RH  048%=      5-min Rain = 0
KLO1 120841Z 13001KT M04/M13 A3029 RMK A01 T10391132  RH  048%=      5-min Rain = 0
KLO1 120842Z 11001KT M04/M13 A3029 RMK A01 T10391131  RH  049%=      5-min Rain = 0
KLO1 120843Z 00000KT M04/M13 A3029 RMK A01 T10391130  RH  049%=      5-min Rain = 0
KLO1 120844Z 00000KT M04/M13 A3029 RMK A01 T10381130  RH  049%=      5-min Rain = 0
KLO1 120845Z 00000KT M04/M13 A3029 RMK A01 T10381130  RH  049%=      5-min Rain = 0
KLO1 120846Z 00000KT M04/M13 A303 RMK A01 T10381130  RH  049%=      5-min Rain = 0
KLO1 120847Z 00000KT M04/M13 A303 RMK A01 T10381130  RH  049%=      5-min Rain = 0
KLO1 120848Z 00000KT M04/M13 A303 RMK A01 T10381129  RH  049%=      5-min Rain = 0
KLO1 120849Z 00000KT M04/M13 A303 RMK A01 T10371128  RH  049%=      5-min Rain = 0
KLO1 120850Z 00000KT M04/M13 A303 RMK A01 T10371128  RH  049%=      5-min Rain = 0
KLO1 120851Z 00000KT M04/M13 A303 RMK A01 T10361128  RH  049%=      5-min Rain = 0
KLO1 120852Z 00000KT M04/M13 A3029 RMK A01 T10361129  RH  049%=      5-min Rain = 0
KLO1 120853Z 09001KT M04/M13 A3029 RMK A01 T10361129  RH  049%=      5-min Rain = 0
KLO1 120854Z 09001KT M04/M13 A3029 RMK A01 T10361129  RH  048%=      5-min Rain = 0
KLO1 120855Z 09001KT M04/M13 A3029 RMK A01 T10361130  RH  048%=      5-min Rain = 0
KLO1 120856Z 09001KT M04/M13 A3029 RMK A01 T10371131  RH  048%=      5-min Rain = 0
KLO1 120857Z 09001KT M04/M13 A3029 RMK A01 T10381132  RH  048%=      5-min Rain = 0
KLO1 120858Z 09001KT M04/M13 A3029 RMK A01 T10391132  RH  048%=      5-min Rain = 0
KLO1 120859Z 09001KT M04/M13 A3029 RMK A01 T10401133  RH  048%=      5-min Rain = 0
KLO1 120900Z 09002KT M04/M13 A3029 RMK A01 T10401133  RH  049%=      5-min Rain = 0
KLO1 120901Z 09002KT M04/M13 A3029 RMK A01 T10411133  RH  049%=      5-min Rain = 0
KLO1 120902Z 09002KT M04/M13 A3029 RMK A01 T10411132  RH  049%=      5-min Rain = 0
KLO1 120903Z 10003KT M04/M13 A3029 RMK A01 T10411131  RH  050%=      5-min Rain = 0
KLO1 120904Z 10003KT M04/M13 A3029 RMK A01 T10411130  RH  050%=      5-min Rain = 0
KLO1 120905Z 11004KT M04/M13 A3029 RMK A01 T10401131  RH  049%=      5-min Rain = 0
KLO1 120906Z 11004KT M04/M13 A3028 RMK A01 T10401132  RH  049%=      5-min Rain = 0
KLO1 120907Z 11004KT M04/M13 A3028 RMK A01 T10411134  RH  049%=      5-min Rain = 0
KLO1 120908Z 11004KT M04/M14 A3028 RMK A01 T10421135  RH  049%=      5-min Rain = 0
KLO1 120909Z 11004KT M04/M14 A3028 RMK A01 T10431135  RH  049%=      5-min Rain = 0
KLO1 120910Z 11004KT M04/M14 A3028 RMK A01 T10431136  RH  049%=      5-min Rain = 0
KLO1 120911Z 10004KT M04/M14 A3028 RMK A01 T10431135  RH  049%=      5-min Rain = 0
KLO1 120912Z 10004KT M04/M13 A3028 RMK A01 T10441132  RH  050%=      5-min Rain = 0
KLO1 120913Z 10004KT M04/M13 A3028 RMK A01 T10441133  RH  050%=      5-min Rain = 0
KLO1 120914Z 10004KT M04/M13 A3028 RMK A01 T10441133  RH  050%=      5-min Rain = 0
KLO1 120915Z 10004KT M04/M13 A3028 RMK A01 T10431133  RH  050%=      5-min Rain = 0
KLO1 120916Z 10004KT M04/M13 A3028 RMK A01 T10431133  RH  050%=      5-min Rain = 0
KLO1 120917Z 10004KT M04/M13 A3028 RMK A01 T10441133  RH  050%=      5-min Rain = 0
KLO1 120918Z 10004KT M04/M13 A3028 RMK A01 T10441133  RH  050%=      5-min Rain = 0
KLO1 120919Z 10004KT M04/M13 A3028 RMK A01 T10441133  RH  050%=      5-min Rain = 0
KLO1 120920Z 10004KT M04/M13 A3028 RMK A01 T10441133  RH  050%=      5-min Rain = 0
KLO1 120921Z 10003KT M04/M13 A3028 RMK A01 T10441133  RH  050%=      5-min Rain = 0
KLO1 120922Z 09003KT M04/M13 A3028 RMK A01 T10441134  RH  050%=      5-min Rain = 0
KLO1 120923Z 09003KT M05/M13 A3028 RMK A01 T10451134  RH  050%=      5-min Rain = 0
KLO1 120924Z 08003KT M04/M13 A3028 RMK A01 T10441133  RH  050%=      5-min Rain = 0
KLO1 120925Z 07003KT M04/M13 A3028 RMK A01 T10441132  RH  050%=      5-min Rain = 0
KLO1 120926Z 07003KT M04/M13 A3028 RMK A01 T10431132  RH  050%=      5-min Rain = 0
KLO1 120927Z 07003KT M04/M13 A3028 RMK A01 T10431132  RH  050%=      5-min Rain = 0
KLO1 120928Z 07004KT M04/M13 A3028 RMK A01 T10431132  RH  050%=      5-min Rain = 0
KLO1 120929Z 07003KT M04/M13 A3028 RMK A01 T10431132  RH  050%=      5-min Rain = 0
KLO1 120930Z 07003KT M04/M13 A3028 RMK A01 T10431132  RH  050%=      5-min Rain = 0
KLO1 120931Z 06003KT M04/M13 A3028 RMK A01 T10431131  RH  050%=      5-min Rain = 0
KLO1 120932Z 05003KT M04/M13 A3028 RMK A01 T10431132  RH  050%=      5-min Rain = 0
KLO1 120933Z 05003KT M04/M13 A3028 RMK A01 T10431132  RH  050%=      5-min Rain = 0
KLO1 120934Z 05003KT M04/M13 A3028 RMK A01 T10421131  RH  050%=      5-min Rain = 0
KLO1 120935Z 05003KT M04/M13 A3028 RMK A01 T10421130  RH  050%=      5-min Rain = 0
KLO1 120936Z 04003KT M04/M13 A3028 RMK A01 T10411130  RH  050%=      5-min Rain = 0
KLO1 120937Z 05003KT M04/M13 A3028 RMK A01 T10401130  RH  050%=      5-min Rain = 0
KLO1 120938Z 05003KT M04/M13 A3028 RMK A01 T10401131  RH  049%=      5-min Rain = 0
KLO1 120939Z 05003KT M04/M13 A3028 RMK A01 T10401131  RH  049%=      5-min Rain = 0
KLO1 120940Z 04003KT M04/M13 A3028 RMK A01 T10401131  RH  049%=      5-min Rain = 0
KLO1 120941Z 04003KT M04/M13 A3028 RMK A01 T10401131  RH  049%=      5-min Rain = 0
KLO1 120942Z 04003KT M04/M13 A3028 RMK A01 T10401132  RH  049%=      5-min Rain = 0
KLO1 120943Z 04003KT M04/M13 A3028 RMK A01 T10401132  RH  049%=      5-min Rain = 0
KLO1 120944Z 04003KT M04/M13 A3028 RMK A01 T10401131  RH  049%=      5-min Rain = 0
KLO1 120945Z 04003KT M04/M13 A3028 RMK A01 T10391130  RH  049%=      5-min Rain = 0
KLO1 120946Z 04003KT M04/M13 A3028 RMK A01 T10391130  RH  049%=      5-min Rain = 0
KLO1 120947Z 04003KT M04/M13 A3028 RMK A01 T10381129  RH  049%=      5-min Rain = 0
KLO1 120948Z 04003KT M04/M13 A3028 RMK A01 T10381129  RH  049%=      5-min Rain = 0
KLO1 120949Z 04003KT M04/M13 A3028 RMK A01 T10371128  RH  049%=      5-min Rain = 0
KLO1 120950Z 04003KT M04/M13 A3028 RMK A01 T10371128  RH  049%=      5-min Rain = 0
KLO1 120951Z 04003KT M04/M13 A3028 RMK A01 T10371128  RH  049%=      5-min Rain = 0
KLO1 120952Z 04002KT M04/M13 A3029 RMK A01 T10371129  RH  049%=      5-min Rain = 0
KLO1 120953Z 04002KT M04/M13 A3029 RMK A01 T10371129  RH  049%=      5-min Rain = 0
KLO1 120954Z 04002KT M04/M13 A3029 RMK A01 T10371130  RH  049%=      5-min Rain = 0
KLO1 120955Z 05002KT M04/M13 A3029 RMK A01 T10371129  RH  049%=      5-min Rain = 0
KLO1 120956Z 05001KT M04/M13 A3029 RMK A01 T10371130  RH  049%=      5-min Rain = 0
KLO1 120957Z 05001KT M04/M13 A3029 RMK A01 T10371130  RH  049%=      5-min Rain = 0
KLO1 120958Z 04002KT M04/M13 A3029 RMK A01 T10371130  RH  049%=      5-min Rain = 0
KLO1 120959Z 04001KT M04/M13 A3029 RMK A01 T10371130  RH  049%=      5-min Rain = 0
KLO1 121000Z 04001KT M04/M13 A3029 RMK A01 T10371129  RH  049%=      5-min Rain = 0
KLO1 121001Z 04001KT M04/M13 A3029 RMK A01 T10371129  RH  049%=      5-min Rain = 0
KLO1 121002Z 04001KT M04/M13 A3029 RMK A01 T10371129  RH  049%=      5-min Rain = 0
KLO1 121003Z 04001KT M04/M13 A3029 RMK A01 T10371129  RH  049%=      5-min Rain = 0
KLO1 121004Z 04002KT M04/M13 A3029 RMK A01 T10371128  RH  049%=      5-min Rain = 0
KLO1 121005Z 04002KT M04/M13 A3029 RMK A01 T10371128  RH  049%=      5-min Rain = 0
KLO1 121006Z 04002KT M04/M13 A3029 RMK A01 T10371128  RH  049%=      5-min Rain = 0
KLO1 121007Z 04001KT M04/M13 A3029 RMK A01 T10371128  RH  050%=      5-min Rain = 0
KLO1 121008Z 05001KT M04/M13 A3029 RMK A01 T10371127  RH  050%=      5-min Rain = 0
KLO1 121009Z 05000KT M04/M13 A3029 RMK A01 T10371127  RH  050%=      5-min Rain = 0
KLO1 121010Z 00000KT M04/M13 A3029 RMK A01 T10371127  RH  050%=      5-min Rain = 0
KLO1 121011Z 00000KT M04/M13 A3028 RMK A01 T10371127  RH  050%=      5-min Rain = 0
KLO1 121012Z 05001KT M04/M13 A3028 RMK A01 T10381127  RH  050%=      5-min Rain = 0
KLO1 121013Z 04002KT M04/M13 A3028 RMK A01 T10381126  RH  050%=      5-min Rain = 0
KLO1 121014Z 04002KT M04/M13 A3028 RMK A01 T10381126  RH  050%=      5-min Rain = 0
KLO1 121015Z 04002KT M04/M13 A3028 RMK A01 T10381126  RH  050%=      5-min Rain = 0
KLO1 121016Z 04002KT M04/M13 A3028 RMK A01 T10371126  RH  050%=      5-min Rain = 0
KLO1 121017Z 04002KT M04/M13 A3028 RMK A01 T10381126  RH  050%=      5-min Rain = 0
KLO1 121018Z 05001KT M04/M13 A3028 RMK A01 T10381126  RH  050%=      5-min Rain = 0
KLO1 121019Z 05001KT M04/M13 A3028 RMK A01 T10381126  RH  050%=      5-min Rain = 0
KLO1 121020Z 05001KT M04/M13 A3028 RMK A01 T10381126  RH  050%=      5-min Rain = 0
KLO1 121021Z 05001KT M04/M13 A3028 RMK A01 T10381126  RH  050%=      5-min Rain = 0
KLO1 121022Z 05001KT M04/M13 A3028 RMK A01 T10371125  RH  050%=      5-min Rain = 0
KLO1 121023Z 05001KT M04/M13 A3028 RMK A01 T10371125  RH  051%=      5-min Rain = 0
KLO1 121024Z 04001KT M04/M13 A3028 RMK A01 T10371125  RH  051%=      5-min Rain = 0
KLO1 121025Z 03000KT M04/M12 A3028 RMK A01 T10361124  RH  051%=      5-min Rain = 0
KLO1 121026Z 03001KT M04/M12 A3028 RMK A01 T10361124  RH  050%=      5-min Rain = 0
KLO1 121027Z 02001KT M04/M12 A3028 RMK A01 T10351124  RH  050%=      5-min Rain = 0
KLO1 121028Z 03001KT M04/M12 A3028 RMK A01 T10351124  RH  050%=      5-min Rain = 0
KLO1 121029Z 03000KT M04/M12 A3028 RMK A01 T10351124  RH  050%=      5-min Rain = 0
KLO1 121030Z 03001KT M04/M12 A3028 RMK A01 T10351124  RH  050%=      5-min Rain = 0
KLO1 121031Z 03001KT M03/M12 A3028 RMK A01 T10341124  RH  050%=      5-min Rain = 0
KLO1 121032Z 03001KT M03/M12 A3028 RMK A01 T10341124  RH  050%=      5-min Rain = 0
KLO1 121033Z 03001KT M03/M12 A3028 RMK A01 T10341124  RH  050%=      5-min Rain = 0
KLO1 121034Z 03001KT M03/M12 A3028 RMK A01 T10331124  RH  050%=      5-min Rain = 0
KLO1 121035Z 03001KT M03/M12 A3028 RMK A01 T10331124  RH  049%=      5-min Rain = 0
KLO1 121036Z 03001KT M03/M12 A3028 RMK A01 T10331124  RH  049%=      5-min Rain = 0
KLO1 121037Z 03001KT M03/M12 A3028 RMK A01 T10321124  RH  049%=      5-min Rain = 0
KLO1 121038Z 03001KT M03/M12 A3028 RMK A01 T10321124  RH  049%=      5-min Rain = 0
KLO1 121039Z 03001KT M03/M12 A3028 RMK A01 T10321124  RH  049%=      5-min Rain = 0
KLO1 121040Z 03001KT M03/M12 A3028 RMK A01 T10321124  RH  049%=      5-min Rain = 0
KLO1 121041Z 03000KT M03/M12 A3028 RMK A01 T10311123  RH  049%=      5-min Rain = 0
KLO1 121042Z 00000KT M03/M12 A3028 RMK A01 T10311123  RH  049%=      5-min Rain = 0
KLO1 121043Z 00000KT M03/M12 A3029 RMK A01 T10311123  RH  049%=      5-min Rain = 0
KLO1 121044Z 00000KT M03/M12 A3029 RMK A01 T10311124  RH  049%=      5-min Rain = 0
KLO1 121045Z 00000KT M03/M12 A3029 RMK A01 T10301124  RH  048%=      5-min Rain = 0
KLO1 121046Z 16000KT M03/M12 A3029 RMK A01 T10301124  RH  048%=      5-min Rain = 0
KLO1 121047Z 16001KT M03/M12 A3029 RMK A01 T10301123  RH  049%=      5-min Rain = 0
KLO1 121048Z 16000KT M03/M12 A3029 RMK A01 T10291123  RH  048%=      5-min Rain = 0
KLO1 121049Z 16000KT M03/M12 A3029 RMK A01 T10291124  RH  048%=      5-min Rain = 0
KLO1 121050Z 16000KT M03/M12 A3029 RMK A01 T10291124  RH  048%=      5-min Rain = 0
KLO1 121051Z 17000KT M03/M12 A3029 RMK A01 T10291124  RH  048%=      5-min Rain = 0
KLO1 121052Z 20001KT M03/M12 A3029 RMK A01 T10291124  RH  048%=      5-min Rain = 0
KLO1 121053Z 20000KT M03/M13 A3029 RMK A01 T10291125  RH  048%=      5-min Rain = 0
KLO1 121054Z 00000KT M03/M13 A3029 RMK A01 T10291125  RH  047%=      5-min Rain = 0
KLO1 121055Z 00000KT M03/M13 A3029 RMK A01 T10291125  RH  047%=      5-min Rain = 0
KLO1 121056Z 00000KT M03/M13 A3029 RMK A01 T10291125  RH  047%=      5-min Rain = 0
KLO1 121057Z 00000KT M03/M13 A3029 RMK A01 T10291125  RH  047%=      5-min Rain = 0
KLO1 121058Z 20000KT M03/M13 A3029 RMK A01 T10281125  RH  047%=      5-min Rain = 0
KLO1 121059Z 00000KT M03/M13 A3029 RMK A01 T10281125  RH  047%=      5-min Rain = 0
KLO1 121100Z 00000KT M03/M13 A3029 RMK A01 T10281125  RH  047%=      5-min Rain = 0
KLO1 121101Z 00000KT M03/M13 A3029 RMK A01 T10291126  RH  047%=      5-min Rain = 0
KLO1 121102Z 00000KT M03/M13 A3029 RMK A01 T10291126  RH  047%=      5-min Rain = 0
KLO1 121103Z 00000KT M03/M13 A3029 RMK A01 T10281126  RH  047%=      5-min Rain = 0
KLO1 121104Z 00000KT M03/M13 A3029 RMK A01 T10291126  RH  047%=      5-min Rain = 0
KLO1 121105Z 00000KT M03/M13 A3029 RMK A01 T10291126  RH  047%=      5-min Rain = 0
KLO1 121106Z 00000KT M03/M13 A3029 RMK A01 T10291126  RH  047%=      5-min Rain = 0
KLO1 121107Z 00000KT M03/M13 A3029 RMK A01 T10291126  RH  047%=      5-min Rain = 0
KLO1 121108Z 00000KT M03/M13 A303 RMK A01 T10291125  RH  047%=      5-min Rain = 0
KLO1 121109Z 28000KT M03/M13 A303 RMK A01 T10291125  RH  047%=      5-min Rain = 0
KLO1 121110Z 28001KT M03/M13 A303 RMK A01 T10291125  RH  047%=      5-min Rain = 0
KLO1 121111Z 29001KT M03/M12 A303 RMK A01 T10281124  RH  048%=      5-min Rain = 0
KLO1 121112Z 29001KT M03/M12 A303 RMK A01 T10281124  RH  048%=      5-min Rain = 0
KLO1 121113Z 28002KT M03/M12 A303 RMK A01 T10281123  RH  048%=      5-min Rain = 0
KLO1 121114Z 28002KT M03/M12 A303 RMK A01 T10271123  RH  048%=      5-min Rain = 0
KLO1 121115Z 28002KT M03/M12 A303 RMK A01 T10281123  RH  048%=      5-min Rain = 0
KLO1 121116Z 29002KT M03/M12 A303 RMK A01 T10281123  RH  048%=      5-min Rain = 0
KLO1 121117Z 29001KT M03/M12 A303 RMK A01 T10291123  RH  048%=      5-min Rain = 0
KLO1 121118Z 29001KT M03/M12 A303 RMK A01 T10291123  RH  049%=      5-min Rain = 0
KLO1 121119Z 29001KT M03/M12 A303 RMK A01 T10301123  RH  049%=      5-min Rain = 0
KLO1 121120Z 29000KT M03/M12 A303 RMK A01 T10301124  RH  048%=      5-min Rain = 0
KLO1 121121Z 00000KT M03/M13 A303 RMK A01 T10311125  RH  048%=      5-min Rain = 0
KLO1 121122Z 00000KT M03/M13 A303 RMK A01 T10311126  RH  048%=      5-min Rain = 0
KLO1 121123Z 00000KT M03/M13 A303 RMK A01 T10321126  RH  048%=      5-min Rain = 0
KLO1 121124Z 00000KT M03/M13 A303 RMK A01 T10321126  RH  048%=      5-min Rain = 0
KLO1 121125Z 00000KT M03/M13 A303 RMK A01 T10321126  RH  048%=      5-min Rain = 0
KLO1 121126Z 00000KT M03/M13 A303 RMK A01 T10331126  RH  048%=      5-min Rain = 0
KLO1 121127Z 00000KT M03/M13 A303 RMK A01 T10331126  RH  049%=      5-min Rain = 0
KLO1 121128Z 00000KT M03/M13 A3029 RMK A01 T10331126  RH  049%=      5-min Rain = 0
KLO1 121129Z 00000KT M03/M13 A3029 RMK A01 T10331126  RH  049%=      5-min Rain = 0
KLO1 121130Z 00000KT M03/M13 A3029 RMK A01 T10331126  RH  049%=      5-min Rain = 0
KLO1 121131Z 00000KT M03/M13 A3029 RMK A01 T10341126  RH  049%=      5-min Rain = 0
KLO1 121132Z 00000KT M03/M13 A3029 RMK A01 T10341126  RH  049%=      5-min Rain = 0
KLO1 121133Z 00000KT M03/M13 A3029 RMK A01 T10341125  RH  049%=      5-min Rain = 0
KLO1 121134Z 00000KT M03/M13 A3029 RMK A01 T10341126  RH  049%=      5-min Rain = 0
KLO1 121135Z 29001KT M03/M13 A3029 RMK A01 T10341125  RH  050%=      5-min Rain = 0
KLO1 121136Z 29000KT M03/M12 A303 RMK A01 T10341124  RH  050%=      5-min Rain = 0
KLO1 121137Z 29000KT M03/M12 A303 RMK A01 T10331123  RH  050%=      5-min Rain = 0
KLO1 121138Z 30001KT M03/M12 A303 RMK A01 T10331123  RH  050%=      5-min Rain = 0
KLO1 121139Z 30001KT M03/M12 A303 RMK A01 T10331124  RH  050%=      5-min Rain = 0
KLO1 121140Z 30001KT M03/M12 A303 RMK A01 T10331124  RH  049%=      5-min Rain = 0
KLO1 121141Z 30000KT M03/M12 A303 RMK A01 T10331124  RH  049%=      5-min Rain = 0
KLO1 121142Z 30000KT M03/M12 A303 RMK A01 T10331124  RH  049%=      5-min Rain = 0
KLO1 121143Z 00000KT M03/M12 A303 RMK A01 T10321124  RH  049%=      5-min Rain = 0
KLO1 121144Z 00000KT M03/M12 A303 RMK A01 T10331124  RH  049%=      5-min Rain = 0
KLO1 121145Z 00000KT M03/M12 A303 RMK A01 T10321124  RH  049%=      5-min Rain = 0
KLO1 121146Z 30000KT M03/M12 A3031 RMK A01 T10321123  RH  049%=      5-min Rain = 0
KLO1 121147Z 30000KT M03/M12 A3031 RMK A01 T10311123  RH  049%=      5-min Rain = 0
KLO1 121148Z 30000KT M03/M12 A3031 RMK A01 T10321123  RH  049%=      5-min Rain = 0
KLO1 121149Z 00000KT M03/M12 A303 RMK A01 T10321123  RH  049%=      5-min Rain = 0
KLO1 121150Z 00000KT M03/M12 A303 RMK A01 T10321123  RH  049%=      5-min Rain = 0
KLO1 121151Z 00000KT M03/M12 A303 RMK A01 T10311123  RH  049%=      5-min Rain = 0
KLO1 121152Z 00000KT M03/M12 A303 RMK A01 T10311123  RH  049%=      5-min Rain = 0
KLO1 121153Z 00000KT M03/M12 A303 RMK A01 T10311123  RH  049%=      5-min Rain = 0
KLO1 121154Z 00000KT M03/M12 A3031 RMK A01 T10311124  RH  049%=      5-min Rain = 0
KLO1 121155Z 00000KT M03/M12 A303 RMK A01 T10311124  RH  049%=      5-min Rain = 0
KLO1 121156Z 00000KT M03/M12 A303 RMK A01 T10321124  RH  049%=      5-min Rain = 0
KLO1 121157Z 00000KT M03/M12 A303 RMK A01 T10321124  RH  049%=      5-min Rain = 0
KLO1 121158Z 00000KT M03/M12 A303 RMK A01 T10321124  RH  049%=      5-min Rain = 0
KLO1 121159Z 00000KT M03/M12 A3031 RMK A01 T10321124  RH  049%=      5-min Rain = 0
KLO1 121200Z 00000KT M03/M12 A3031 RMK A01 T10321124  RH  049%=      5-min Rain = 0
KLO1 121201Z 00000KT M03/M12 A3031 RMK A01 T10321124  RH  049%=      5-min Rain = 0
KLO1 121202Z 00000KT M03/M12 A3031 RMK A01 T10331124  RH  049%=      5-min Rain = 0
KLO1 121203Z 00000KT M03/M13 A303 RMK A01 T10331125  RH  049%=      5-min Rain = 0
KLO1 121204Z 00000KT M03/M13 A303 RMK A01 T10331126  RH  049%=      5-min Rain = 0
KLO1 121205Z 00000KT M03/M13 A303 RMK A01 T10331127  RH  048%=      5-min Rain = 0
KLO1 121206Z 00000KT M03/M13 A303 RMK A01 T10331126  RH  049%=      5-min Rain = 0
KLO1 121207Z 05001KT M03/M13 A303 RMK A01 T10331125  RH  049%=      5-min Rain = 0
KLO1 121208Z 06003KT M03/M13 A303 RMK A01 T10331125  RH  049%=      5-min Rain = 0
KLO1 121209Z 06003KT M03/M12 A3029 RMK A01 T10321124  RH  049%=      5-min Rain = 0
KLO1 121210Z 06004KT M03/M13 A3029 RMK A01 T10331126  RH  049%=      5-min Rain = 0
KLO1 121211Z 06004KT M03/M13 A3029 RMK A01 T10341128  RH  048%=      5-min Rain = 0
KLO1 121212Z 05003KT M04/M13 A3029 RMK A01 T10351127  RH  049%=      5-min Rain = 0
KLO1 121213Z 05003KT M04/M13 A3029 RMK A01 T10361127  RH  049%=      5-min Rain = 0
KLO1 121214Z 06003KT M04/M13 A3029 RMK A01 T10371127  RH  050%=      5-min Rain = 0
KLO1 121215Z 06003KT M04/M13 A3029 RMK A01 T10381127  RH  050%=      5-min Rain = 0
KLO1 121216Z 07003KT M04/M13 A3029 RMK A01 T10381127  RH  050%=      5-min Rain = 0
KLO1 121217Z 07003KT M04/M13 A3029 RMK A01 T10381126  RH  050%=      5-min Rain = 0
KLO1 121218Z 08003KT M04/M13 A3029 RMK A01 T10381125  RH  051%=      5-min Rain = 0
KLO1 121219Z 08003KT M04/M12 A3029 RMK A01 T10371124  RH  051%=      5-min Rain = 0
KLO1 121220Z 08003KT M04/M12 A303 RMK A01 T10361123  RH  051%=      5-min Rain = 0
KLO1 121221Z 09003KT M04/M12 A303 RMK A01 T10351122  RH  051%=      5-min Rain = 0
KLO1 121222Z 09003KT M03/M12 A303 RMK A01 T10341122  RH  051%=      5-min Rain = 0
KLO1 121223Z 09004KT M03/M12 A303 RMK A01 T10331121  RH  051%=      5-min Rain = 0
KLO1 121224Z 09003KT M03/M12 A303 RMK A01 T10331121  RH  051%=      5-min Rain = 0
KLO1 121225Z 10003KT M03/M12 A303 RMK A01 T10321122  RH  050%=      5-min Rain = 0
KLO1 121226Z 10002KT M03/M12 A303 RMK A01 T10321123  RH  049%=      5-min Rain = 0
KLO1 121227Z 11002KT M03/M12 A3031 RMK A01 T10321123  RH  049%=      5-min Rain = 0
KLO1 121228Z 11002KT M03/M12 A3031 RMK A01 T10321123  RH  049%=      5-min Rain = 0
KLO1 121229Z 12001KT M03/M12 A3031 RMK A01 T10321124  RH  049%=      5-min Rain = 0
KLO1 121230Z 13002KT M03/M12 A3031 RMK A01 T10331124  RH  049%=      5-min Rain = 0
KLO1 121231Z 13002KT M03/M13 A3031 RMK A01 T10341125  RH  049%=      5-min Rain = 0
KLO1 121232Z 13003KT M03/M13 A3031 RMK A01 T10341125  RH  049%=      5-min Rain = 0
KLO1 121233Z 13003KT M03/M13 A3031 RMK A01 T10331125  RH  049%=      5-min Rain = 0
KLO1 121234Z 12004KT M03/M13 A3031 RMK A01 T10341127  RH  049%=      5-min Rain = 0
KLO1 121235Z 12004KT M04/M13 A3031 RMK A01 T10351127  RH  049%=      5-min Rain = 0
KLO1 121236Z 11004KT M04/M13 A303 RMK A01 T10351128  RH  049%=      5-min Rain = 0
KLO1 121237Z 10005KT M04/M13 A303 RMK A01 T10351128  RH  049%=      5-min Rain = 0
KLO1 121238Z 11005KT M03/M13 A303 RMK A01 T10341126  RH  049%=      5-min Rain = 0
KLO1 121239Z 12005KT M03/M13 A303 RMK A01 T10321125  RH  049%=      5-min Rain = 0
KLO1 121240Z 12006KT M03/M13 A303 RMK A01 T10321126  RH  048%=      5-min Rain = 0
KLO1 121241Z 12006KT M03/M13 A303 RMK A01 T10321126  RH  048%=      5-min Rain = 0
KLO1 121242Z 12006KT M03/M13 A303 RMK A01 T10311125  RH  048%=      5-min Rain = 0
KLO1 121243Z 12007KT M03/M12 A303 RMK A01 T10301124  RH  048%=      5-min Rain = 0
KLO1 121244Z 12007KT M03/M12 A303 RMK A01 T10291122  RH  048%=      5-min Rain = 0
KLO1 121245Z 12007KT M03/M12 A303 RMK A01 T10281122  RH  048%=      5-min Rain = 0
KLO1 121246Z 11007KT M03/M12 A303 RMK A01 T10271121  RH  048%=      5-min Rain = 0
KLO1 121247Z 10007KT M03/M12 A303 RMK A01 T10261122  RH  048%=      5-min Rain = 0
KLO1 121248Z 10007KT M03/M12 A3029 RMK A01 T10261122  RH  048%=      5-min Rain = 0
KLO1 121249Z 10007KT M03/M12 A3029 RMK A01 T10251122  RH  047%=      5-min Rain = 0
KLO1 121250Z 10007KT M03/M12 A3029 RMK A01 T10251121  RH  047%=      5-min Rain = 0
KLO1 121251Z 10007KT M02/M12 A3029 RMK A01 T10241122  RH  047%=      5-min Rain = 0
KLO1 121252Z 09007KT M02/M12 A3029 RMK A01 T10241121  RH  047%=      5-min Rain = 0
KLO1 121253Z 09006KT M02/M12 A3029 RMK A01 T10241121  RH  047%=      5-min Rain = 0
KLO1 121254Z 09007KT M02/M12 A3029 RMK A01 T10231121  RH  047%=      5-min Rain = 0
KLO1 121255Z 10007KT M02/M12 A3029 RMK A01 T10221120  RH  047%=      5-min Rain = 0
KLO1 121256Z 11007KT M02/M12 A3029 RMK A01 T10211119  RH  047%=      5-min Rain = 0
KLO1 121257Z 11006KT M02/M12 A303 RMK A01 T10211119  RH  047%=      5-min Rain = 0
KLO1 121258Z 13006KT M02/M12 A303 RMK A01 T10211119  RH  047%=      5-min Rain = 0
KLO1 121259Z 14005KT M02/M12 A3031 RMK A01 T10201119  RH  047%=      5-min Rain = 0
KLO1 121300Z 16005KT M02/M12 A3032 RMK A01 T10201119  RH  047%=      5-min Rain = 0
KLO1 121301Z 16005KT M02/M12 A3032 RMK A01 T10201119  RH  047%=      5-min Rain = 0
KLO1 121302Z 16004KT M02/M12 A3032 RMK A01 T10201119  RH  047%=      5-min Rain = 0
KLO1 121303Z 15004KT M02/M12 A3032 RMK A01 T10201119  RH  047%=      5-min Rain = 0
KLO1 121304Z 15004KT M02/M12 A3032 RMK A01 T10201120  RH  047%=      5-min Rain = 0
KLO1 121305Z 14004KT M02/M12 A3031 RMK A01 T10201119  RH  047%=      5-min Rain = 0
KLO1 121306Z 14005KT M02/M12 A3031 RMK A01 T10201118  RH  047%=      5-min Rain = 0
KLO1 121307Z 13005KT M02/M12 A3031 RMK A01 T10201118  RH  047%=      5-min Rain = 0
KLO1 121308Z 13005KT M02/M12 A3031 RMK A01 T10201118  RH  047%=      5-min Rain = 0
KLO1 121309Z 13004KT M02/M12 A3031 RMK A01 T10201117  RH  047%=      5-min Rain = 0
KLO1 121310Z 13004KT M02/M12 A3031 RMK A01 T10201117  RH  048%=      5-min Rain = 0
KLO1 121311Z 13004KT M02/M12 A3031 RMK A01 T10201117  RH  048%=      5-min Rain = 0
KLO1 121312Z 14004KT M02/M12 A3031 RMK A01 T10201117  RH  048%=      5-min Rain = 0
KLO1 121313Z 13005KT M02/M12 A3031 RMK A01 T10201117  RH  048%=      5-min Rain = 0
KLO1 121314Z 12006KT M02/M12 A3031 RMK A01 T10201117  RH  048%=      5-min Rain = 0
KLO1 121315Z 12007KT M02/M12 A303 RMK A01 T10201117  RH  048%=      5-min Rain = 0
KLO1 121316Z 12007KT M02/M12 A303 RMK A01 T10201117  RH  048%=      5-min Rain = 0
KLO1 121317Z 12006KT M02/M12 A303 RMK A01 T10201116  RH  048%=      5-min Rain = 0
KLO1 121318Z 11007KT M02/M12 A303 RMK A01 T10191117  RH  047%=      5-min Rain = 0
KLO1 121319Z 11005KT M02/M12 A303 RMK A01 T10191117  RH  047%=      5-min Rain = 0
KLO1 121320Z 10005KT M02/M12 A303 RMK A01 T10191117  RH  047%=      5-min Rain = 0
KLO1 121321Z 10005KT M02/M12 A303 RMK A01 T10181117  RH  047%=      5-min Rain = 0
KLO1 121322Z 10005KT M02/M12 A303 RMK A01 T10181117  RH  047%=      5-min Rain = 0
KLO1 121323Z 11005KT M02/M12 A303 RMK A01 T10171117  RH  047%=      5-min Rain = 0
KLO1 121324Z 11004KT M02/M12 A303 RMK A01 T10181117  RH  047%=      5-min Rain = 0
KLO1 121325Z 11005KT M02/M12 A3031 RMK A01 T10171117  RH  047%=      5-min Rain = 0
KLO1 121326Z 12004KT M02/M12 A3031 RMK A01 T10171117  RH  046%=      5-min Rain = 0
KLO1 121327Z 12004KT M02/M12 A3031 RMK A01 T10171117  RH  046%=      5-min Rain = 0
KLO1 121328Z 12003KT M02/M12 A3031 RMK A01 T10171117  RH  046%=      5-min Rain = 0
KLO1 121329Z 12003KT M02/M12 A3031 RMK A01 T10171116  RH  047%=      5-min Rain = 0
KLO1 121330Z 13003KT M02/M12 A3031 RMK A01 T10161116  RH  046%=      5-min Rain = 0
KLO1 121331Z 13004KT M02/M12 A3031 RMK A01 T10161116  RH  046%=      5-min Rain = 0
KLO1 121332Z 12005KT M02/M12 A3031 RMK A01 T10161116  RH  046%=      5-min Rain = 0
KLO1 121333Z 13005KT M02/M12 A3031 RMK A01 T10151116  RH  046%=      5-min Rain = 0
KLO1 121334Z 12005KT M02/M12 A303 RMK A01 T10151115  RH  046%=      5-min Rain = 0
KLO1 121335Z 12006KT M02/M12 A303 RMK A01 T10151115  RH  046%=      5-min Rain = 0
KLO1 121336Z 12007KT M02/M12 A303 RMK A01 T10151115  RH  046%=      5-min Rain = 0
KLO1 121337Z 12006KT M02/M12 A303 RMK A01 T10151115  RH  046%=      5-min Rain = 0
KLO1 121338Z 11006KT M02/M12 A303 RMK A01 T10151115  RH  046%=      5-min Rain = 0
KLO1 121339Z 11006KT M02/M11 A303 RMK A01 T10151114  RH  047%=      5-min Rain = 0
KLO1 121340Z 11006KT M02/M11 A303 RMK A01 T10151114  RH  047%=      5-min Rain = 0
KLO1 121341Z 11005KT M02/M11 A303 RMK A01 T10151114  RH  047%=      5-min Rain = 0
KLO1 121342Z 11005KT M01/M11 A303 RMK A01 T10141114  RH  047%=      5-min Rain = 0
KLO1 121343Z 11004KT M01/M11 A303 RMK A01 T10141113  RH  047%=      5-min Rain = 0
KLO1 121344Z 12004KT M01/M11 A3031 RMK A01 T10141113  RH  047%=      5-min Rain = 0
KLO1 121345Z 12004KT M01/M11 A3031 RMK A01 T10141113  RH  047%=      5-min Rain = 0
KLO1 121346Z 13004KT M01/M11 A3031 RMK A01 T10131113  RH  047%=      5-min Rain = 0
KLO1 121347Z 12004KT M01/M11 A3031 RMK A01 T10141113  RH  047%=      5-min Rain = 0
KLO1 121348Z 12005KT M01/M11 A3031 RMK A01 T10131113  RH  047%=      5-min Rain = 0
KLO1 121349Z 12005KT M01/M11 A3031 RMK A01 T10131113  RH  046%=      5-min Rain = 0
KLO1 121350Z 12005KT M01/M11 A3031 RMK A01 T10131113  RH  046%=      5-min Rain = 0
KLO1 121351Z 12005KT M01/M11 A3031 RMK A01 T10131113  RH  046%=      5-min Rain = 0
KLO1 121352Z 11005KT M01/M11 A3031 RMK A01 T10131114  RH  046%=      5-min Rain = 0
KLO1 121353Z 12006KT M01/M11 A3031 RMK A01 T10131114  RH  046%=      5-min Rain = 0
KLO1 121354Z 12005KT M01/M11 A3031 RMK A01 T10131114  RH  046%=      5-min Rain = 0
KLO1 121355Z 12005KT M01/M11 A3031 RMK A01 T10131114  RH  046%=      5-min Rain = 0
KLO1 121356Z 12004KT M01/M11 A3031 RMK A01 T10131114  RH  046%=      5-min Rain = 0
KLO1 121357Z 13004KT M01/M11 A3031 RMK A01 T10131114  RH  046%=      5-min Rain = 0
KLO1 121358Z 12005KT M01/M12 A3031 RMK A01 T10141115  RH  046%=      5-min Rain = 0
KLO1 121359Z 12005KT M01/M12 A3031 RMK A01 T10141115  RH  046%=      5-min Rain = 0
KLO1 121400Z 11005KT M01/M12 A3031 RMK A01 T10141115  RH  046%=      5-min Rain = 0
KLO1 121401Z 11005KT M01/M12 A3031 RMK A01 T10141115  RH  046%=      5-min Rain = 0
KLO1 121402Z 10004KT M01/M11 A3031 RMK A01 T10141114  RH  046%=      5-min Rain = 0
KLO1 121403Z 10004KT M01/M11 A3031 RMK A01 T10141114  RH  046%=      5-min Rain = 0
KLO1 121404Z 10004KT M01/M11 A3031 RMK A01 T10141114  RH  046%=      5-min Rain = 0
KLO1 121405Z 10004KT M01/M11 A3031 RMK A01 T10141114  RH  046%=      5-min Rain = 0
KLO1 121406Z 10004KT M01/M11 A3031 RMK A01 T10131114  RH  046%=      5-min Rain = 0
KLO1 121407Z 10004KT M01/M11 A3031 RMK A01 T10131114  RH  046%=      5-min Rain = 0
KLO1 121408Z 10003KT M01/M11 A3031 RMK A01 T10121114  RH  046%=      5-min Rain = 0
KLO1 121409Z 10003KT M01/M11 A3031 RMK A01 T10121113  RH  046%=      5-min Rain = 0
KLO1 121410Z 10004KT M01/M11 A3031 RMK A01 T10111113  RH  046%=      5-min Rain = 0
KLO1 121411Z 10004KT M01/M11 A3031 RMK A01 T10101113  RH  046%=      5-min Rain = 0
KLO1 121412Z 10004KT M01/M11 A3031 RMK A01 T10101113  RH  046%=      5-min Rain = 0
KLO1 121413Z 10004KT M01/M11 A303 RMK A01 T10091113  RH  045%=      5-min Rain = 0
KLO1 121414Z 10005KT M01/M11 A303 RMK A01 T10091113  RH  045%=      5-min Rain = 0
KLO1 121415Z 11004KT M01/M11 A303 RMK A01 T10091113  RH  045%=      5-min Rain = 0
KLO1 121416Z 10004KT M01/M11 A303 RMK A01 T10081112  RH  045%=      5-min Rain = 0
KLO1 121417Z 10005KT M01/M11 A303 RMK A01 T10081112  RH  045%=      5-min Rain = 0
KLO1 121418Z 11005KT M01/M11 A303 RMK A01 T10071112  RH  045%=      5-min Rain = 0
KLO1 121419Z 11005KT M01/M11 A303 RMK A01 T10071112  RH  045%=      5-min Rain = 0
KLO1 121420Z 11004KT M01/M11 A303 RMK A01 T10061111  RH  045%=      5-min Rain = 0
KLO1 121421Z 12005KT M01/M11 A303 RMK A01 T10051111  RH  045%=      5-min Rain = 0
KLO1 121422Z 11005KT M01/M11 A303 RMK A01 T10051111  RH  045%=      5-min Rain = 0
KLO1 121423Z 11005KT M00/M11 A303 RMK A01 T10041111  RH  044%=      5-min Rain = 0
KLO1 121424Z 11005KT M00/M11 A303 RMK A01 T10041111  RH  044%=      5-min Rain = 0
KLO1 121425Z 11005KT M00/M11 A303 RMK A01 T10031110  RH  044%=      5-min Rain = 0
KLO1 121426Z 12004KT M00/M11 A3031 RMK A01 T10021110  RH  044%=      5-min Rain = 0
KLO1 121427Z 11005KT M00/M11 A3031 RMK A01 T10011109  RH  044%=      5-min Rain = 0
KLO1 121428Z 12005KT M00/M11 A3031 RMK A01 T10011110  RH  044%=      5-min Rain = 0
KLO1 121429Z 11004KT 00/11 A3031 RMK A01 T00-00-110  RH  044%=      5-min Rain = 0
KLO1 121430Z 10005KT 00/M11 A3031 RMK A01 T00011109  RH  043%=      5-min Rain = 0
KLO1 121431Z 11005KT 00/M11 A3031 RMK A01 T00021109  RH  043%=      5-min Rain = 0
KLO1 121432Z 11005KT 00/M11 A3031 RMK A01 T00021110  RH  043%=      5-min Rain = 0
KLO1 121433Z 11005KT 00/M11 A3031 RMK A01 T00021110  RH  043%=      5-min Rain = 0
KLO1 121434Z 11005KT 00/M11 A3031 RMK A01 T00021110  RH  043%=      5-min Rain = 0
KLO1 121435Z 10005KT 00/M11 A3031 RMK A01 T00031109  RH  043%=      5-min Rain = 0
KLO1 121436Z 11005KT 00/M11 A3031 RMK A01 T00031109  RH  043%=      5-min Rain = 0
KLO1 121437Z 11005KT 00/M11 A3032 RMK A01 T00041109  RH  042%=      5-min Rain = 0
KLO1 121438Z 12005KT 00/M11 A3032 RMK A01 T00041110  RH  042%=      5-min Rain = 0
KLO1 121439Z 12006KT 00/M11 A3032 RMK A01 T00041109  RH  042%=      5-min Rain = 0
KLO1 121440Z 11006KT 01/M11 A3032 RMK A01 T00051109  RH  042%=      5-min Rain = 0
KLO1 121441Z 12007KT 01/M11 A3032 RMK A01 T00051109  RH  042%=      5-min Rain = 0
KLO1 121442Z 11007KT 01/M11 A3032 RMK A01 T00051109  RH  042%=      5-min Rain = 0
KLO1 121443Z 12007KT 00/M11 A3032 RMK A01 T00041110  RH  042%=      5-min Rain = 0
KLO1 121444Z 11009KT 01/M11 A3032 RMK A01 T00051110  RH  042%=      5-min Rain = 0
KLO1 121445Z 12010KT 01/M11 A3032 RMK A01 T00051111  RH  041%=      5-min Rain = 0
KLO1 121446Z 11008KT 01/M11 A3032 RMK A01 T00051112  RH  041%=      5-min Rain = 0
KLO1 121447Z 11008KT 00/M11 A3032 RMK A01 T00041112  RH  041%=      5-min Rain = 0
KLO1 121448Z 11009KT 00/M11 A3032 RMK A01 T00041112  RH  041%=      5-min Rain = 0
KLO1 121449Z 12009KT 00/M11 A3032 RMK A01 T00031113  RH  042%=      5-min Rain = 0
KLO1 121450Z 12010KT 00/M11 A3032 RMK A01 T00021112  RH  042%=      5-min Rain = 0
KLO1 121451Z 12007KT 00/M11 A3032 RMK A01 T00031112  RH  042%=      5-min Rain = 0
KLO1 121452Z 11009KT 00/M11 A3032 RMK A01 T00041111  RH  042%=      5-min Rain = 0
KLO1 121453Z 12006KT 01/M11 A3032 RMK A01 T00051110  RH  042%=      5-min Rain = 0
KLO1 121454Z 12007KT 01/M11 A3032 RMK A01 T00071109  RH  042%=      5-min Rain = 0
KLO1 121455Z 11007KT 01/M11 A3032 RMK A01 T00081109  RH  041%=      5-min Rain = 0
KLO1 121456Z 11008KT 01/M11 A3032 RMK A01 T00081110  RH  041%=      5-min Rain = 0
KLO1 121457Z 11008KT 01/M11 A3032 RMK A01 T00081110  RH  041%=      5-min Rain = 0
KLO1 121458Z 11008KT 01/M11 A3032 RMK A01 T00071110  RH  041%=      5-min Rain = 0
KLO1 121459Z 11008KT 01/M11 A3032 RMK A01 T00071110  RH  041%=      5-min Rain = 0
KLO1 121500Z 11008KT 01/M11 A3032 RMK A01 T00071110  RH  041%=      5-min Rain = 0
KLO1 121501Z 11009KT 01/M11 A3032 RMK A01 T00071110  RH  041%=      5-min Rain = 0
KLO1 121502Z 11009KT 01/M11 A3032 RMK A01 T00071111  RH  041%=      5-min Rain = 0
KLO1 121503Z 11008KT 01/M11 A3032 RMK A01 T00071111  RH  041%=      5-min Rain = 0
KLO1 121504Z 11007KT 01/M11 A3032 RMK A01 T00071111  RH  041%=      5-min Rain = 0
KLO1 121505Z 11008KT 01/M11 A3032 RMK A01 T00071110  RH  041%=      5-min Rain = 0
KLO1 121506Z 11007KT 01/M11 A3032 RMK A01 T00081110  RH  041%=      5-min Rain = 0
KLO1 121507Z 11006KT 01/M11 A3032 RMK A01 T00081110  RH  041%=      5-min Rain = 0
KLO1 121508Z 12006KT 01/M11 A3032 RMK A01 T00091110  RH  041%=      5-min Rain = 0
KLO1 121509Z 12007KT 01/M11 A3032 RMK A01 T00091110  RH  041%=      5-min Rain = 0
KLO1 121510Z 12006KT 01/M11 A3032 RMK A01 T00101110  RH  040%=      5-min Rain = 0
KLO1 121511Z 11008KT 01/M11 A3032 RMK A01 T00111109  RH  040%=      5-min Rain = 0
KLO1 121512Z 11007KT 01/M11 A3032 RMK A01 T00111110  RH  040%=      5-min Rain = 0
KLO1 121513Z 11007KT 01/M11 A3032 RMK A01 T00111109  RH  040%=      5-min Rain = 0
KLO1 121514Z 11008KT 01/M11 A3032 RMK A01 T00111110  RH  040%=      5-min Rain = 0
KLO1 121515Z 11008KT 01/M11 A3033 RMK A01 T00101110  RH  040%=      5-min Rain = 0
KLO1 121516Z 12008KT 01/M11 A3033 RMK A01 T00111110  RH  040%=      5-min Rain = 0
KLO1 121517Z 11007KT 01/M11 A3033 RMK A01 T00111110  RH  040%=      5-min Rain = 0
KLO1 121518Z 11007KT 01/M11 A3033 RMK A01 T00121110  RH  040%=      5-min Rain = 0
KLO1 121519Z 11009KT 01/M11 A3033 RMK A01 T00121110  RH  040%=      5-min Rain = 0
KLO1 121520Z 11007KT 01/M11 A3033 RMK A01 T00111110  RH  040%=      5-min Rain = 0
KLO1 121521Z 12007KT 01/M11 A3033 RMK A01 T00121110  RH  040%=      5-min Rain = 0
KLO1 121522Z 12006KT 01/M11 A3033 RMK A01 T00131109  RH  040%=      5-min Rain = 0
KLO1 121523Z 11006KT 02/M11 A3033 RMK A01 T00151107  RH  040%=      5-min Rain = 0
KLO1 121524Z 11009KT 02/M11 A3033 RMK A01 T00181106  RH  039%=      5-min Rain = 0
KLO1 121525Z 12009KT 02/M11 A3033 RMK A01 T00181108  RH  039%=      5-min Rain = 0
KLO1 121526Z 12009KT 02/M11 A3033 RMK A01 T00171109  RH  038%=      5-min Rain = 0
KLO1 121527Z 12009KT 02/M11 A3033 RMK A01 T00171110  RH  039%=      5-min Rain = 0
KLO1 121528Z 13009KT 02/M11 A3033 RMK A01 T00161110  RH  039%=      5-min Rain = 0
KLO1 121529Z 13008KT 02/M11 A3033 RMK A01 T00151110  RH  039%=      5-min Rain = 0
KLO1 121530Z 13008KT 02/M11 A3033 RMK A01 T00161109  RH  039%=      5-min Rain = 0
KLO1 121531Z 13008KT 02/M11 A3033 RMK A01 T00171109  RH  039%=      5-min Rain = 0
KLO1 121532Z 13008KT 02/M11 A3033 RMK A01 T00191108  RH  038%=      5-min Rain = 0
KLO1 121533Z 11008KT 02/M11 A3033 RMK A01 T00201108  RH  038%=      5-min Rain = 0
KLO1 121534Z 10009KT 02/M11 A3033 RMK A01 T00211108  RH  038%=      5-min Rain = 0
KLO1 121535Z 10009KT 02/M11 A3033 RMK A01 T00211109  RH  037%=      5-min Rain = 0
KLO1 121536Z 10010KT 02/M11 A3033 RMK A01 T00221109  RH  037%=      5-min Rain = 0
KLO1 121537Z 11009KT 02/M11 A3033 RMK A01 T00221111  RH  037%=      5-min Rain = 0
KLO1 121538Z 11007KT 02/M11 A3033 RMK A01 T00221109  RH  037%=      5-min Rain = 0
KLO1 121539Z 11008KT 03/M11 A3033 RMK A01 T00251106  RH  037%=      5-min Rain = 0
KLO1 121540Z 10009KT 03/M11 A3033 RMK A01 T00271107  RH  037%=      5-min Rain = 0
KLO1 121541Z 11008KT 03/M11 A3033 RMK A01 T00261108  RH  036%=      5-min Rain = 0
KLO1 121542Z 12008KT 03/M11 A3033 RMK A01 T00261108  RH  037%=      5-min Rain = 0
KLO1 121543Z 12009KT 03/M11 A3033 RMK A01 T00251109  RH  036%=      5-min Rain = 0
KLO1 121544Z 12008KT 03/M11 A3033 RMK A01 T00251108  RH  037%=      5-min Rain = 0
KLO1 121545Z 12010KT 03/M11 A3033 RMK A01 T00251109  RH  037%=      5-min Rain = 0
KLO1 121546Z 10008KT 02/M11 A3033 RMK A01 T00241109  RH  037%=      5-min Rain = 0
KLO1 121547Z 12009KT 02/M11 A3033 RMK A01 T00241109  RH  037%=      5-min Rain = 0
KLO1 121548Z 10009KT 03/M11 A3033 RMK A01 T00251108  RH  037%=      5-min Rain = 0
KLO1 121549Z 11010KT 03/M11 A3033 RMK A01 T00261108  RH  037%=      5-min Rain = 0
KLO1 121550Z 10007KT 03/M11 A3033 RMK A01 T00251109  RH  036%=      5-min Rain = 0
KLO1 121551Z 13007KT 03/M11 A3033 RMK A01 T00251109  RH  037%=      5-min Rain = 0
KLO1 121552Z 13007KT 03/M11 A3033 RMK A01 T00271107  RH  037%=      5-min Rain = 0
KLO1 121553Z 12008KT 03/M11 A3033 RMK A01 T00291106  RH  036%=      5-min Rain = 0
KLO1 121554Z 12009KT 03/M11 A3033 RMK A01 T00301106  RH  036%=      5-min Rain = 0
KLO1 121555Z 12009KT 03/M11 A3033 RMK A01 T00301108  RH  035%=      5-min Rain = 0
KLO1 121556Z 12009KT 03/M11 A3033 RMK A01 T00281109  RH  036%=      5-min Rain = 0
KLO1 121557Z 13008KT 03/M11 A3033 RMK A01 T00291108  RH  036%=      5-min Rain = 0
KLO1 121558Z 12009KT 03/M11 A3033 RMK A01 T00311107  RH  036%=      5-min Rain = 0
KLO1 121559Z 11008KT 03/M11 A3033 RMK A01 T00301109  RH  035%=      5-min Rain = 0
KLO1 121600Z 12010KT 03/M11 A3034 RMK A01 T00311106  RH  036%=      5-min Rain = 0
KLO1 121601Z 12010KT 03/M11 A3034 RMK A01 T00321106  RH  035%=      5-min Rain = 0
KLO1 121602Z 13008KT 03/M11 A3034 RMK A01 T00311108  RH  035%=      5-min Rain = 0
KLO1 121603Z 11008KT 03/M11 A3034 RMK A01 T00301108  RH  036%=      5-min Rain = 0
KLO1 121604Z 11009KT 03/M11 A3034 RMK A01 T00301107  RH  036%=      5-min Rain = 0
KLO1 121605Z 11009KT 03/M11 A3034 RMK A01 T00291108  RH  036%=      5-min Rain = 0
KLO1 121606Z 11009KT 03/M11 A3034 RMK A01 T00301107  RH  036%=      5-min Rain = 0
KLO1 121607Z 10008KT 03/M11 A3034 RMK A01 T00301107  RH  036%=      5-min Rain = 0
KLO1 121608Z 10009KT 03/M11 A3034 RMK A01 T00301108  RH  036%=      5-min Rain = 0
KLO1 121609Z 11010KT 03/M11 A3034 RMK A01 T00291107  RH  036%=      5-min Rain = 0
KLO1 121610Z 11008KT 03/M11 A3034 RMK A01 T00301107  RH  036%=      5-min Rain = 0
KLO1 121611Z 10008KT 03/M11 A3034 RMK A01 T00311106  RH  036%=      5-min Rain = 0
KLO1 121612Z 10009KT 03/M11 A3034 RMK A01 T00321106  RH  036%=      5-min Rain = 0
KLO1 121613Z 12007KT 03/M11 A3034 RMK A01 T00331105  RH  036%=      5-min Rain = 0
KLO1 121614Z 10007KT 03/M11 A3034 RMK A01 T00341106  RH  035%=      5-min Rain = 0
KLO1 121615Z 11009KT 03/M11 A3034 RMK A01 T00341105  RH  035%=      5-min Rain = 0
KLO1 121616Z 11008KT 04/M10 A3034 RMK A01 T00361104  RH  035%=      5-min Rain = 0
KLO1 121617Z 11008KT 04/M10 A3034 RMK A01 T00371104  RH  035%=      5-min Rain = 0
KLO1 121618Z 10009KT 04/M11 A3034 RMK A01 T00371105  RH  034%=      5-min Rain = 0
KLO1 121619Z 10009KT 04/M11 A3034 RMK A01 T00361107  RH  034%=      5-min Rain = 0
KLO1 121620Z 10009KT 03/M11 A3034 RMK A01 T00341108  RH  034%=      5-min Rain = 0
KLO1 121621Z 10008KT 03/M11 A3034 RMK A01 T00341107  RH  035%=      5-min Rain = 0
KLO1 121622Z 11008KT 03/M11 A3034 RMK A01 T00341107  RH  035%=      5-min Rain = 0
KLO1 121623Z 13009KT 04/M11 A3034 RMK A01 T00361105  RH  035%=      5-min Rain = 0
KLO1 121624Z 13008KT 04/M11 A3034 RMK A01 T00361106  RH  034%=      5-min Rain = 0
KLO1 121625Z 14008KT 04/M11 A3034 RMK A01 T00371105  RH  034%=      5-min Rain = 0
KLO1 121626Z 14007KT 04/M11 A3034 RMK A01 T00381106  RH  034%=      5-min Rain = 0
KLO1 121627Z 12007KT 04/M11 A3034 RMK A01 T00391105  RH  034%=      5-min Rain = 0
KLO1 121628Z 12007KT 04/M11 A3034 RMK A01 T00401105  RH  034%=      5-min Rain = 0
KLO1 121629Z 12010KT 04/M11 A3034 RMK A01 T00401105  RH  034%=      5-min Rain = 0
KLO1 121630Z 13010KT 04/M11 A3034 RMK A01 T00391106  RH  034%=      5-min Rain = 0
KLO1 121631Z 13010KT 04/M11 A3034 RMK A01 T00381106  RH  034%=      5-min Rain = 0
KLO1 121632Z 13008KT 04/M11 A3034 RMK A01 T00391106  RH  034%=      5-min Rain = 0
KLO1 121633Z 13005KT 04/M11 A3034 RMK A01 T00381107  RH  034%=      5-min Rain = 0
KLO1 121634Z 10007KT 04/M11 A3034 RMK A01 T00391105  RH  034%=      5-min Rain = 0
KLO1 121635Z 09006KT 04/M11 A3034 RMK A01 T00411105  RH  034%=      5-min Rain = 0
KLO1 121636Z 12009KT 04/M10 A3034 RMK A01 T00421104  RH  034%=      5-min Rain = 0
KLO1 121637Z 13007KT 04/M11 A3034 RMK A01 T00411106  RH  033%=      5-min Rain = 0
KLO1 121638Z 13005KT 04/M11 A3034 RMK A01 T00411105  RH  034%=      5-min Rain = 0
KLO1 121639Z 11008KT 04/M10 A3034 RMK A01 T00431103  RH  034%=      5-min Rain = 0
KLO1 121640Z 12008KT 04/M10 A3034 RMK A01 T00441104  RH  033%=      5-min Rain = 0
KLO1 121641Z 11006KT 04/M11 A3034 RMK A01 T00411107  RH  033%=      5-min Rain = 0
KLO1 121642Z 11005KT 04/M11 A3034 RMK A01 T00411106  RH  033%=      5-min Rain = 0
KLO1 121643Z 09008KT 04/M10 A3034 RMK A01 T00421104  RH  034%=      5-min Rain = 0
KLO1 121644Z 10009KT 04/M10 A3034 RMK A01 T00441104  RH  033%=      5-min Rain = 0
KLO1 121645Z 11008KT 04/M10 A3034 RMK A01 T00441104  RH  033%=      5-min Rain = 0
KLO1 121646Z 11007KT 05/M11 A3034 RMK A01 T00451105  RH  033%=      5-min Rain = 0
KLO1 121647Z 12008KT 04/M11 A3034 RMK A01 T00431106  RH  033%=      5-min Rain = 0
KLO1 121648Z 12008KT 05/M10 A3034 RMK A01 T00451104  RH  033%=      5-min Rain = 0
KLO1 121649Z 14007KT 04/M11 A3034 RMK A01 T00441106  RH  033%=      5-min Rain = 0
KLO1 121650Z 14007KT 04/M11 A3034 RMK A01 T00441106  RH  033%=      5-min Rain = 0
KLO1 121651Z 11010KT 04/M11 A3034 RMK A01 T00441106  RH  033%=      5-min Rain = 0
KLO1 121652Z 10010KT 04/M11 A3034 RMK A01 T00431106  RH  033%=      5-min Rain = 0
KLO1 121653Z 10010KT 04/M10 A3034 RMK A01 T00441104  RH  033%=      5-min Rain = 0
KLO1 121654Z 12008KT 04/M10 A3034 RMK A01 T00441104  RH  033%=      5-min Rain = 0
KLO1 121655Z 12007KT 05/M10 A3034 RMK A01 T00461103  RH  033%=      5-min Rain = 0
KLO1 121656Z 12007KT 04/M11 A3034 RMK A01 T00431108  RH  032%=      5-min Rain = 0
KLO1 121657Z 12006KT 04/M11 A3034 RMK A01 T00421107  RH  033%=      5-min Rain = 0
KLO1 121658Z 10009G15KT 04/M10 A3033 RMK A01 T00441104  RH  033%=      5-min Rain = 0
KLO1 121659Z 11010KT 05/M10 A3034 RMK A01 T00481101  RH  033%=      5-min Rain = 0
KLO1 121700Z 11009KT 05/M10 A3034 RMK A01 T00471104  RH  032%=      5-min Rain = 0
KLO1 121701Z 12010KT 05/M11 A3033 RMK A01 T00461106  RH  032%=      5-min Rain = 0
KLO1 121702Z 12009KT 05/M11 A3033 RMK A01 T00451106  RH  032%=      5-min Rain = 0
KLO1 121703Z 11008KT 05/M11 A3033 RMK A01 T00451106  RH  032%=      5-min Rain = 0
KLO1 121704Z 11007KT 05/M11 A3033 RMK A01 T00451105  RH  033%=      5-min Rain = 0
KLO1 121705Z 13007KT 05/M10 A3033 RMK A01 T00501100  RH  033%=      5-min Rain = 0
KLO1 121706Z 10010KT 05/M10 A3033 RMK A01 T00531101  RH  032%=      5-min Rain = 0
KLO1 121707Z 11011KT 05/M11 A3033 RMK A01 T00501106  RH  031%=      5-min Rain = 0
KLO1 121708Z 10008KT 05/M11 A3033 RMK A01 T00461108  RH  032%=      5-min Rain = 0
KLO1 121709Z 10008KT 04/M11 A3033 RMK A01 T00431109  RH  032%=      5-min Rain = 0
KLO1 121710Z 10008KT 04/M11 A3033 RMK A01 T00431107  RH  033%=      5-min Rain = 0
KLO1 121711Z 11007KT 04/M11 A3033 RMK A01 T00431106  RH  033%=      5-min Rain = 0
KLO1 121712Z 11011KT 05/M10 A3033 RMK A01 T00451104  RH  033%=      5-min Rain = 0
KLO1 121713Z 11008KT 05/M11 A3033 RMK A01 T00451105  RH  033%=      5-min Rain = 0
KLO1 121714Z 11008KT 05/M10 A3033 RMK A01 T00471104  RH  033%=      5-min Rain = 0
KLO1 121715Z 11005KT 05/M11 A3033 RMK A01 T00461106  RH  032%=      5-min Rain = 0
KLO1 121716Z 12006KT 05/M10 A3033 RMK A01 T00481103  RH  033%=      5-min Rain = 0
KLO1 121717Z 10009KT 05/M10 A3033 RMK A01 T00491104  RH  032%=      5-min Rain = 0
KLO1 121718Z 10009KT 05/M10 A3033 RMK A01 T00501103  RH  032%=      5-min Rain = 0
KLO1 121719Z 11009KT 05/M10 A3033 RMK A01 T00521102  RH  032%=      5-min Rain = 0
KLO1 121720Z 11006G11KT 05/M11 A3033 RMK A01 T00491105  RH  032%=      5-min Rain = 0
KLO1 121721Z 10013KT 05/M10 A3033 RMK A01 T00491103  RH  032%=      5-min Rain = 0
KLO1 121722Z 11010KT 05/M10 A3033 RMK A01 T00501103  RH  032%=      5-min Rain = 0
KLO1 121723Z 13011KT 05/M10 A3033 RMK A01 T00521101  RH  032%=      5-min Rain = 0
KLO1 121724Z 13011KT 05/M10 A3033 RMK A01 T00541101  RH  032%=      5-min Rain = 0
KLO1 121725Z 12010KT 05/M10 A3033 RMK A01 T00541103  RH  031%=      5-min Rain = 0
KLO1 121726Z 13007KT 05/M11 A3032 RMK A01 T00511106  RH  031%=      5-min Rain = 0
KLO1 121727Z 13007KT 05/M10 A3032 RMK A01 T00501104  RH  032%=      5-min Rain = 0
KLO1 121728Z 12009KT 05/M10 A3032 RMK A01 T00511102  RH  032%=      5-min Rain = 0
KLO1 121729Z 12011KT 05/M10 A3032 RMK A01 T00541100  RH  032%=      5-min Rain = 0
KLO1 121730Z 13011KT 05/M10 A3032 RMK A01 T00531103  RH  031%=      5-min Rain = 0
KLO1 121731Z 14009KT 05/M10 A3032 RMK A01 T00531102  RH  032%=      5-min Rain = 0
KLO1 121732Z 14007KT 05/M10 A3032 RMK A01 T00531104  RH  031%=      5-min Rain = 0
KLO1 121733Z 14005KT 05/M10 A3032 RMK A01 T00521104  RH  031%=      5-min Rain = 0
KLO1 121734Z 11010KT 05/M10 A3032 RMK A01 T00541102  RH  032%=      5-min Rain = 0
KLO1 121735Z 08008KT 06/M10 A3032 RMK A01 T00561102  RH  031%=      5-min Rain = 0
KLO1 121736Z 09010KT 05/M10 A3032 RMK A01 T00531104  RH  031%=      5-min Rain = 0
KLO1 121737Z 09010KT 05/M10 A3032 RMK A01 T00531103  RH  031%=      5-min Rain = 0
KLO1 121738Z 11010KT 05/M10 A3032 RMK A01 T00541102  RH  032%=      5-min Rain = 0
KLO1 121739Z 11009KT 06/M10 A3032 RMK A01 T00561100  RH  031%=      5-min Rain = 0
KLO1 121740Z 10009KT 06/M10 A3032 RMK A01 T00591099  RH  031%=      5-min Rain = 0
KLO1 121741Z 09008KT 06/M10 A3032 RMK A01 T00581101  RH  031%=      5-min Rain = 0
KLO1 121742Z 09006KT 06/M10 A3032 RMK A01 T00561103  RH  031%=      5-min Rain = 0
KLO1 121743Z 09005KT 06/M10 A3032 RMK A01 T00551103  RH  031%=      5-min Rain = 0
KLO1 121744Z 11008KT 06/M10 A3032 RMK A01 T00551101  RH  031%=      5-min Rain = 0
KLO1 121745Z 11008KT 06/M10 A3032 RMK A01 T00581099  RH  031%=      5-min Rain = 0
KLO1 121746Z 10006KT 06/M10 A3031 RMK A01 T00601098  RH  031%=      5-min Rain = 0
KLO1 121747Z 11011KT 06/M10 A3031 RMK A01 T00601099  RH  031%=      5-min Rain = 0
KLO1 121748Z 12011KT 06/M10 A3031 RMK A01 T00621099  RH  031%=      5-min Rain = 0
KLO1 121749Z 13010KT 06/M10 A3031 RMK A01 T00641097  RH  031%=      5-min Rain = 0
KLO1 121750Z 13011KT 07/M10 A3031 RMK A01 T00651099  RH  030%=      5-min Rain = 0
KLO1 121751Z 12010KT 06/M10 A3031 RMK A01 T00631100  RH  030%=      5-min Rain = 0
KLO1 121752Z 13006KT 06/M10 A3031 RMK A01 T00611101  RH  030%=      5-min Rain = 0
KLO1 121753Z 13008KT 06/M10 A3031 RMK A01 T00601101  RH  030%=      5-min Rain = 0
KLO1 121754Z 12007KT 06/M10 A3031 RMK A01 T00601101  RH  031%=      5-min Rain = 0
KLO1 121755Z 10006KT 06/M10 A3031 RMK A01 T00601100  RH  031%=      5-min Rain = 0
KLO1 121756Z 10007KT 06/M10 A3031 RMK A01 T00641097  RH  031%=      5-min Rain = 0
KLO1 121757Z 10006KT 06/M10 A3031 RMK A01 T00641099  RH  030%=      5-min Rain = 0
KLO1 121758Z 12007KT 06/M10 A3031 RMK A01 T00641098  RH  030%=      5-min Rain = 0
KLO1 121759Z 12008KT 07/M10 A3031 RMK A01 T00681096  RH  030%=      5-min Rain = 0
KLO1 121800Z 12009KT 07/M10 A3031 RMK A01 T00701096  RH  030%=      5-min Rain = 0
KLO1 121801Z 11008KT 07/M10 A3031 RMK A01 T00721095  RH  029%=      5-min Rain = 0
KLO1 121802Z 11009KT 07/M10 A3031 RMK A01 T00731095  RH  029%=      5-min Rain = 0
KLO1 121803Z 10005KT 07/M10 A303 RMK A01 T00711098  RH  029%=      5-min Rain = 0
KLO1 121804Z 10007KT 07/M10 A303 RMK A01 T00681100  RH  029%=      5-min Rain = 0
KLO1 121805Z 11011KT 07/M10 A303 RMK A01 T00691096  RH  030%=      5-min Rain = 0
KLO1 121806Z 12010KT 08/M09 A303 RMK A01 T00751092  RH  029%=      5-min Rain = 0
KLO1 121807Z 11011KT 08/M10 A303 RMK A01 T00771095  RH  028%=      5-min Rain = 0
KLO1 121808Z 11011KT 07/M10 A303 RMK A01 T00711100  RH  028%=      5-min Rain = 0
KLO1 121809Z 12010KT 07/M10 A303 RMK A01 T00701098  RH  029%=      5-min Rain = 0
KLO1 121810Z 11010KT 07/M10 A303 RMK A01 T00701098  RH  029%=      5-min Rain = 0
KLO1 121811Z 11008KT 07/M10 A303 RMK A01 T00681100  RH  029%=      5-min Rain = 0
KLO1 121812Z 09009KT 07/M10 A303 RMK A01 T00691097  RH  030%=      5-min Rain = 0
KLO1 121813Z 09008KT 07/M10 A303 RMK A01 T00701098  RH  029%=      5-min Rain = 0
KLO1 121814Z 10007KT 07/M10 A303 RMK A01 T00681098  RH  029%=      5-min Rain = 0
KLO1 121815Z 12010KT 07/M10 A303 RMK A01 T00701096  RH  030%=      5-min Rain = 0
KLO1 121816Z 13009KT 07/M10 A303 RMK A01 T00731095  RH  029%=      5-min Rain = 0
KLO1 121817Z 14009KT 07/M10 A3029 RMK A01 T00741095  RH  029%=      5-min Rain = 0
KLO1 121818Z 12011KT 07/M10 A3029 RMK A01 T00741095  RH  029%=      5-min Rain = 0
KLO1 121819Z 13011KT 08/M09 A3029 RMK A01 T00761094  RH  029%=      5-min Rain = 0
KLO1 121820Z 12010KT 08/M09 A3029 RMK A01 T00771093  RH  029%=      5-min Rain = 0
KLO1 121821Z 12012KT 08/M10 A3029 RMK A01 T00761095  RH  028%=      5-min Rain = 0
KLO1 121822Z 12009KT 08/M10 A3029 RMK A01 T00751096  RH  028%=      5-min Rain = 0
KLO1 121823Z 15010KT 08/M10 A3029 RMK A01 T00751095  RH  029%=      5-min Rain = 0
KLO1 121824Z 14010KT 08/M10 A3029 RMK A01 T00761095  RH  029%=      5-min Rain = 0
KLO1 121825Z 14010KT 08/M09 A3029 RMK A01 T00781094  RH  029%=      5-min Rain = 0
KLO1 121826Z 12010KT 08/M10 A3029 RMK A01 T00781095  RH  028%=      5-min Rain = 0
KLO1 121827Z 11009KT 08/M10 A3029 RMK A01 T00781096  RH  028%=      5-min Rain = 0
KLO1 121828Z 11010KT 08/M10 A3029 RMK A01 T00771096  RH  028%=      5-min Rain = 0
KLO1 121829Z 10012KT 08/M10 A3029 RMK A01 T00781095  RH  028%=      5-min Rain = 0
KLO1 121830Z 11011KT 08/M09 A3029 RMK A01 T00801094  RH  028%=      5-min Rain = 0
KLO1 121831Z 10012KT 08/M10 A3029 RMK A01 T00801095  RH  028%=      5-min Rain = 0
KLO1 121832Z 11012KT 08/M10 A3029 RMK A01 T00781096  RH  028%=      5-min Rain = 0
KLO1 121833Z 10011KT 08/M10 A3029 RMK A01 T00781095  RH  028%=      5-min Rain = 0
KLO1 121834Z 11010KT 08/M09 A3028 RMK A01 T00801094  RH  028%=      5-min Rain = 0
KLO1 121835Z 11012KT 08/M09 A3028 RMK A01 T00801094  RH  028%=      5-min Rain = 0
KLO1 121836Z 11008KT 08/M10 A3028 RMK A01 T00781096  RH  028%=      5-min Rain = 0
KLO1 121837Z 13011G16KT 08/M10 A3028 RMK A01 T00781095  RH  028%=      5-min Rain = 0
KLO1 121838Z 13011KT 08/M09 A3028 RMK A01 T00811092  RH  028%=      5-min Rain = 0
KLO1 121839Z 14009KT 08/M09 A3028 RMK A01 T00811093  RH  028%=      5-min Rain = 0
KLO1 121840Z 14011G20KT 08/M09 A3028 RMK A01 T00841090  RH  028%=      5-min Rain = 0
KLO1 121841Z 11010KT 09/M09 A3028 RMK A01 T00871090  RH  028%=      5-min Rain = 0
KLO1 121842Z 10011KT 09/M09 A3028 RMK A01 T00861092  RH  027%=      5-min Rain = 0
KLO1 121843Z 10010KT 09/M09 A3028 RMK A01 T00851093  RH  027%=      5-min Rain = 0
KLO1 121844Z 11009KT 09/M09 A3028 RMK A01 T00851092  RH  027%=      5-min Rain = 0
KLO1 121845Z 10008KT 09/M09 A3028 RMK A01 T00871092  RH  027%=      5-min Rain = 0
KLO1 121846Z 10010KT 09/M09 A3027 RMK A01 T00861093  RH  027%=      5-min Rain = 0
KLO1 121847Z 12012KT 09/M09 A3027 RMK A01 T00861092  RH  027%=      5-min Rain = 0
KLO1 121848Z 12011KT 09/M09 A3027 RMK A01 T00891090  RH  027%=      5-min Rain = 0
KLO1 121849Z 13014KT 09/M09 A3027 RMK A01 T00911090  RH  027%=      5-min Rain = 0
KLO1 121850Z 13014KT 09/M09 A3027 RMK A01 T00901091  RH  027%=      5-min Rain = 0
KLO1 121851Z 13012KT 09/M09 A3027 RMK A01 T00891092  RH  027%=      5-min Rain = 0
KLO1 121852Z 14009G16KT 09/M09 A3027 RMK A01 T00881093  RH  027%=      5-min Rain = 0
KLO1 121853Z 11014KT 09/M09 A3027 RMK A01 T00871091  RH  027%=      5-min Rain = 0
KLO1 121854Z 12015KT 09/M09 A3027 RMK A01 T00871091  RH  027%=      5-min Rain = 0
KLO1 121855Z 12014KT 09/M09 A3027 RMK A01 T00871091  RH  027%=      5-min Rain = 0
KLO1 121856Z 12012KT 09/M09 A3027 RMK A01 T00851092  RH  028%=      5-min Rain = 0
KLO1 121857Z 12011KT 08/M09 A3026 RMK A01 T00841092  RH  028%=      5-min Rain = 0
KLO1 121858Z 13012KT 09/M09 A3026 RMK A01 T00851090  RH  028%=      5-min Rain = 0
KLO1 121859Z 13012KT 09/M09 A3026 RMK A01 T00881088  RH  028%=      5-min Rain = 0
KLO1 121900Z 14013KT 09/M09 A3026 RMK A01 T00911088  RH  027%=      5-min Rain = 0
KLO1 121901Z 14013KT 09/M09 A3026 RMK A01 T00901091  RH  027%=      5-min Rain = 0
KLO1 121902Z 15011KT 09/M09 A3026 RMK A01 T00881092  RH  027%=      5-min Rain = 0
KLO1 121903Z 15012KT 09/M09 A3026 RMK A01 T00871091  RH  027%=      5-min Rain = 0
KLO1 121904Z 14011KT 09/M09 A3026 RMK A01 T00891090  RH  027%=      5-min Rain = 0
KLO1 121905Z 14011KT 09/M09 A3026 RMK A01 T00931088  RH  027%=      5-min Rain = 0
KLO1 121906Z 14007KT 09/M09 A3026 RMK A01 T00931090  RH  026%=      5-min Rain = 0
KLO1 121907Z 14011KT 10/M09 A3026 RMK A01 T00951087  RH  027%=      5-min Rain = 0
KLO1 121908Z 14013KT 10/M09 A3026 RMK A01 T00961089  RH  026%=      5-min Rain = 0
KLO1 121909Z 13011KT 09/M09 A3026 RMK A01 T00931091  RH  026%=      5-min Rain = 0
KLO1 121910Z 12009KT 09/M09 A3026 RMK A01 T00911091  RH  027%=      5-min Rain = 0
KLO1 121911Z 11009KT 09/M09 A3026 RMK A01 T00901091  RH  027%=      5-min Rain = 0
KLO1 121912Z 11009KT 09/M09 A3025 RMK A01 T00901091  RH  027%=      5-min Rain = 0
KLO1 121913Z 14010KT 09/M09 A3025 RMK A01 T00911090  RH  027%=      5-min Rain = 0
KLO1 121914Z 13009KT 09/M09 A3025 RMK A01 T00931089  RH  027%=      5-min Rain = 0
KLO1 121915Z 11009KT 09/M09 A3025 RMK A01 T00941089  RH  026%=      5-min Rain = 0
KLO1 121916Z 12009KT 09/M09 A3025 RMK A01 T00921091  RH  026%=      5-min Rain = 0
KLO1 121917Z 11010G15KT 09/M09 A3025 RMK A01 T00931089  RH  027%=      5-min Rain = 0
KLO1 121918Z 11014KT 09/M09 A3025 RMK A01 T00941089  RH  027%=      5-min Rain = 0
KLO1 121919Z 11010KT 09/M09 A3025 RMK A01 T00931090  RH  026%=      5-min Rain = 0
KLO1 121920Z 11011KT 09/M09 A3025 RMK A01 T00921091  RH  026%=      5-min Rain = 0
KLO1 121921Z 11015KT 09/M09 A3025 RMK A01 T00911091  RH  027%=      5-min Rain = 0
KLO1 121922Z 12013KT 09/M09 A3025 RMK A01 T00931090  RH  027%=      5-min Rain = 0
KLO1 121923Z 12010KT 09/M09 A3025 RMK A01 T00931091  RH  026%=      5-min Rain = 0
KLO1 121924Z 14010KT 09/M09 A3025 RMK A01 T00931090  RH  027%=      5-min Rain = 0
KLO1 121925Z 14012KT 10/M09 A3024 RMK A01 T00951089  RH  026%=      5-min Rain = 0
KLO1 121926Z 15013KT 09/M09 A3024 RMK A01 T00931092  RH  026%=      5-min Rain = 0
KLO1 121927Z 14012KT 09/M09 A3024 RMK A01 T00921092  RH  026%=      5-min Rain = 0
KLO1 121928Z 14011KT 09/M09 A3024 RMK A01 T00921091  RH  026%=      5-min Rain = 0
KLO1 121929Z 12009KT 09/M09 A3024 RMK A01 T00921091  RH  026%=      5-min Rain = 0
KLO1 121930Z 14011KT 09/M09 A3024 RMK A01 T00931090  RH  026%=      5-min Rain = 0
KLO1 121931Z 15009KT 10/M09 A3024 RMK A01 T00951090  RH  026%=      5-min Rain = 0
KLO1 121932Z 12009KT 09/M09 A3024 RMK A01 T00931093  RH  026%=      5-min Rain = 0
KLO1 121933Z 11011KT 09/M09 A3024 RMK A01 T00921091  RH  026%=      5-min Rain = 0
KLO1 121934Z 11008G13KT 09/M09 A3024 RMK A01 T00911092  RH  026%=      5-min Rain = 0
KLO1 121935Z 11007KT 09/M09 A3024 RMK A01 T00911092  RH  026%=      5-min Rain = 0
KLO1 121936Z 12005KT 09/M09 A3023 RMK A01 T00921091  RH  027%=      5-min Rain = 0
KLO1 121937Z 16011KT 10/M09 A3023 RMK A01 T00951089  RH  026%=      5-min Rain = 0
KLO1 121938Z 15011KT 10/M09 A3023 RMK A01 T00961089  RH  026%=      5-min Rain = 0
KLO1 121939Z 15010KT 10/M09 A3023 RMK A01 T00961089  RH  026%=      5-min Rain = 0
KLO1 121940Z 15008KT 10/M09 A3023 RMK A01 T00961089  RH  026%=      5-min Rain = 0
KLO1 121941Z 12011KT 10/M09 A3023 RMK A01 T00981088  RH  026%=      5-min Rain = 0
KLO1 121942Z 12012KT 10/M09 A3023 RMK A01 T01001088  RH  026%=      5-min Rain = 0
KLO1 121943Z 13010KT 10/M09 A3023 RMK A01 T01011089  RH  025%=      5-min Rain = 0
KLO1 121944Z 13008KT 10/M09 A3023 RMK A01 T00991091  RH  025%=      5-min Rain = 0
KLO1 121945Z 13011KT 10/M09 A3023 RMK A01 T00981090  RH  026%=      5-min Rain = 0
KLO1 121946Z 12009KT 10/M09 A3023 RMK A01 T00991090  RH  025%=      5-min Rain = 0
KLO1 121947Z 11009KT 10/M09 A3023 RMK A01 T00981091  RH  025%=      5-min Rain = 0
KLO1 121948Z 12006KT 10/M09 A3023 RMK A01 T00971091  RH  026%=      5-min Rain = 0
KLO1 121949Z 12010KT 10/M09 A3023 RMK A01 T00991088  RH  026%=      5-min Rain = 0
KLO1 121950Z 11010KT 10/M09 A3022 RMK A01 T01031087  RH  025%=      5-min Rain = 0
KLO1 121951Z 12012KT 10/M09 A3022 RMK A01 T01041087  RH  025%=      5-min Rain = 0
KLO1 121952Z 13008KT 11/M09 A3022 RMK A01 T01051089  RH  025%=      5-min Rain = 0
KLO1 121953Z 12006KT 10/M09 A3022 RMK A01 T01011093  RH  025%=      5-min Rain = 0
KLO1 121954Z 12009KT 10/M09 A3022 RMK A01 T00991092  RH  025%=      5-min Rain = 0
KLO1 121955Z 12009KT 10/M09 A3022 RMK A01 T01011090  RH  025%=      5-min Rain = 0
KLO1 121956Z 13012KT 10/M09 A3022 RMK A01 T01031089  RH  025%=      5-min Rain = 0
KLO1 121957Z 13011KT 10/M09 A3022 RMK A01 T01031091  RH  025%=      5-min Rain = 0
KLO1 121958Z 13012KT 10/M09 A3022 RMK A01 T00991092  RH  025%=      5-min Rain = 0
KLO1 121959Z 13010KT 10/M09 A3022 RMK A01 T00981092  RH  025%=      5-min Rain = 0
KLO1 122000Z 12009KT 10/M09 A3022 RMK A01 T00981092  RH  025%=      5-min Rain = 0
KLO1 122001Z 12011KT 10/M09 A3022 RMK A01 T00971092  RH  025%=      5-min Rain = 0
KLO1 122002Z 13011KT 10/M09 A3022 RMK A01 T00971091  RH  026%=      5-min Rain = 0
KLO1 122003Z 14010KT 10/M09 A3022 RMK A01 T00991090  RH  026%=      5-min Rain = 0
KLO1 122004Z 13009KT 10/M09 A3022 RMK A01 T01031087  RH  025%=      5-min Rain = 0
KLO1 122005Z 15010KT 11/M09 A3022 RMK A01 T01061087  RH  025%=      5-min Rain = 0
KLO1 122006Z 15010KT 11/M09 A3022 RMK A01 T01061088  RH  025%=      5-min Rain = 0
KLO1 122007Z 15011KT 11/M09 A3022 RMK A01 T01071088  RH  025%=      5-min Rain = 0
KLO1 122008Z 13009KT 11/M09 A3022 RMK A01 T01051089  RH  025%=      5-min Rain = 0
KLO1 122009Z 12012KT 11/M09 A3022 RMK A01 T01081087  RH  025%=      5-min Rain = 0
KLO1 122010Z 12011KT 11/M09 A3022 RMK A01 T01071090  RH  024%=      5-min Rain = 0
KLO1 122011Z 13012KT 11/M09 A3022 RMK A01 T01061089  RH  024%=      5-min Rain = 0
KLO1 122012Z 12012KT 11/M09 A3022 RMK A01 T01071089  RH  024%=      5-min Rain = 0
KLO1 122013Z 11011KT 10/M09 A3022 RMK A01 T01031092  RH  024%=      5-min Rain = 0
KLO1 122014Z 10010KT 10/M09 A3021 RMK A01 T01031091  RH  025%=      5-min Rain = 0
KLO1 122015Z 12007KT 10/M09 A3021 RMK A01 T01011092  RH  025%=      5-min Rain = 0
KLO1 122016Z 14007KT 10/M09 A3021 RMK A01 T00991092  RH  025%=      5-min Rain = 0
KLO1 122017Z 12011G16KT 10/M09 A3021 RMK A01 T01021088  RH  025%=      5-min Rain = 0
KLO1 122018Z 12013KT 11/M09 A3021 RMK A01 T01051088  RH  025%=      5-min Rain = 0
KLO1 122019Z 13012KT 11/M09 A3021 RMK A01 T01061089  RH  024%=      5-min Rain = 0
KLO1 122020Z 13011KT 11/M09 A3021 RMK A01 T01051090  RH  024%=      5-min Rain = 0
KLO1 122021Z 12012KT 11/M09 A3021 RMK A01 T01051090  RH  025%=      5-min Rain = 0
KLO1 122022Z 12011KT 11/M09 A3021 RMK A01 T01071089  RH  024%=      5-min Rain = 0
KLO1 122023Z 13007KT 10/M09 A3021 RMK A01 T01041093  RH  024%=      5-min Rain = 0
KLO1 122024Z 13006KT 10/M09 A3021 RMK A01 T01011093  RH  025%=      5-min Rain = 0
KLO1 122025Z 11008KT 10/M09 A3021 RMK A01 T01021090  RH  025%=      5-min Rain = 0
KLO1 122026Z 13009KT 10/M09 A3021 RMK A01 T01041089  RH  025%=      5-min Rain = 0
KLO1 122027Z 13011KT 11/M09 A3021 RMK A01 T01051090  RH  025%=      5-min Rain = 0
KLO1 122028Z 12011KT 10/M09 A3021 RMK A01 T01041091  RH  024%=      5-min Rain = 0
KLO1 122029Z 11011KT 10/M09 A3021 RMK A01 T01031091  RH  025%=      5-min Rain = 0
KLO1 122030Z 12010KT 11/M09 A3021 RMK A01 T01061088  RH  025%=      5-min Rain = 0
KLO1 122031Z 13008KT 11/M09 A3021 RMK A01 T01081088  RH  024%=      5-min Rain = 0
KLO1 122032Z 14013KT 11/M09 A302 RMK A01 T01101087  RH  024%=      5-min Rain = 0
KLO1 122033Z 15009G14KT 11/M09 A302 RMK A01 T01091090  RH  024%=      5-min Rain = 0
KLO1 122034Z 14010KT 11/M09 A302 RMK A01 T01081089  RH  024%=      5-min Rain = 0
KLO1 122035Z 15010KT 11/M09 A302 RMK A01 T01111087  RH  024%=      5-min Rain = 0
KLO1 122036Z 15010KT 11/M09 A302 RMK A01 T01101089  RH  024%=      5-min Rain = 0
KLO1 122037Z 15007KT 11/M09 A302 RMK A01 T01091089  RH  024%=      5-min Rain = 0
KLO1 122038Z 14007KT 11/M09 A302 RMK A01 T01081089  RH  024%=      5-min Rain = 0
KLO1 122039Z 14010KT 11/M09 A302 RMK A01 T01111085  RH  024%=      5-min Rain = 0
KLO1 122040Z 14012KT 11/M09 A302 RMK A01 T01141086  RH  024%=      5-min Rain = 0
KLO1 122041Z 12010KT 11/M09 A302 RMK A01 T01121089  RH  023%=      5-min Rain = 0
KLO1 122042Z 14010KT 11/M09 A302 RMK A01 T01101091  RH  024%=      5-min Rain = 0
KLO1 122043Z 14012KT 11/M09 A302 RMK A01 T01091090  RH  024%=      5-min Rain = 0
KLO1 122044Z 12011KT 11/M09 A302 RMK A01 T01091089  RH  024%=      5-min Rain = 0
KLO1 122045Z 12011KT 11/M09 A302 RMK A01 T01111088  RH  024%=      5-min Rain = 0
KLO1 122046Z 11010KT 11/M09 A302 RMK A01 T01111088  RH  024%=      5-min Rain = 0
KLO1 122047Z 11011KT 11/M09 A302 RMK A01 T01121088  RH  024%=      5-min Rain = 0
KLO1 122048Z 14012KT 11/M09 A302 RMK A01 T01081091  RH  024%=      5-min Rain = 0
KLO1 122049Z 14011KT 11/M09 A302 RMK A01 T01071091  RH  024%=      5-min Rain = 0
KLO1 122050Z 16009KT 11/M09 A302 RMK A01 T01051090  RH  024%=      5-min Rain = 0
KLO1 122051Z 14013KT 11/M09 A302 RMK A01 T01071088  RH  025%=      5-min Rain = 0
KLO1 122052Z 13013KT 11/M09 A302 RMK A01 T01101087  RH  024%=      5-min Rain = 0
KLO1 122053Z 14012KT 11/M09 A302 RMK A01 T01091088  RH  024%=      5-min Rain = 0
KLO1 122054Z 14013KT 11/M09 A302 RMK A01 T01091089  RH  024%=      5-min Rain = 0
KLO1 122055Z 14011KT 11/M09 A302 RMK A01 T01081089  RH  024%=      5-min Rain = 0
KLO1 122056Z 15014KT 11/M09 A3019 RMK A01 T01071089  RH  024%=      5-min Rain = 0
KLO1 122057Z 14013KT 11/M09 A302 RMK A01 T01081089  RH  024%=      5-min Rain = 0
KLO1 122058Z 14012KT 11/M09 A302 RMK A01 T01091088  RH  024%=      5-min Rain = 0
KLO1 122059Z 14009KT 11/M09 A302 RMK A01 T01101088  RH  024%=      5-min Rain = 0
KLO1 122100Z 15009KT 11/M09 A3019 RMK A01 T01131086  RH  024%=      5-min Rain = 0
KLO1 122101Z 14010KT 11/M09 A3019 RMK A01 T01131087  RH  024%=      5-min Rain = 0
KLO1 122102Z 12011KT 11/M09 A3019 RMK A01 T01131087  RH  024%=      5-min Rain = 0
KLO1 122103Z 14014KT 11/M09 A3019 RMK A01 T01141088  RH  023%=      5-min Rain = 0
KLO1 122104Z 14014KT 11/M09 A3019 RMK A01 T01141088  RH  023%=      5-min Rain = 0
KLO1 122105Z 13014KT 11/M09 A302 RMK A01 T01131088  RH  024%=      5-min Rain = 0
KLO1 122106Z 12013KT 11/M09 A302 RMK A01 T01121088  RH  024%=      5-min Rain = 0
KLO1 122107Z 13011KT 11/M09 A302 RMK A01 T01101088  RH  024%=      5-min Rain = 0
KLO1 122108Z 12012G17KT 11/M09 A302 RMK A01 T01111087  RH  024%=      5-min Rain = 0
KLO1 122109Z 13010KT 11/M09 A302 RMK A01 T01101088  RH  024%=      5-min Rain = 0
KLO1 122110Z 13010KT 11/M09 A3019 RMK A01 T01101089  RH  024%=      5-min Rain = 0
KLO1 122111Z 14009KT 11/M09 A3019 RMK A01 T01091088  RH  024%=      5-min Rain = 0
KLO1 122112Z 12009KT 11/M09 A3019 RMK A01 T01121086  RH  024%=      5-min Rain = 0
KLO1 122113Z 12011KT 11/M09 A3019 RMK A01 T01141086  RH  024%=      5-min Rain = 0
KLO1 122114Z 13014KT 11/M09 A302 RMK A01 T01141087  RH  024%=      5-min Rain = 0
KLO1 122115Z 13014KT 11/M09 A302 RMK A01 T01131088  RH  024%=      5-min Rain = 0
KLO1 122116Z 13012KT 11/M09 A302 RMK A01 T01111089  RH  024%=      5-min Rain = 0
KLO1 122117Z 14010KT 11/M09 A302 RMK A01 T01111087  RH  024%=      5-min Rain = 0
KLO1 122118Z 15008KT 11/M09 A3019 RMK A01 T01121087  RH  024%=      5-min Rain = 0
KLO1 122119Z 14008KT 11/M09 A3019 RMK A01 T01111088  RH  024%=      5-min Rain = 0
KLO1 122120Z 13006KT 11/M09 A3019 RMK A01 T01111088  RH  024%=      5-min Rain = 0
KLO1 122121Z 14008KT 11/M09 A3019 RMK A01 T01101089  RH  024%=      5-min Rain = 0
KLO1 122122Z 14011KT 11/M09 A3019 RMK A01 T01121085  RH  024%=      5-min Rain = 0
KLO1 122123Z 15013KT 12/M08 A3019 RMK A01 T01151084  RH  024%=      5-min Rain = 0
KLO1 122124Z 14011KT 11/M09 A3019 RMK A01 T01141086  RH  024%=      5-min Rain = 0
KLO1 122125Z 14010KT 11/M09 A3019 RMK A01 T01141086  RH  024%=      5-min Rain = 0
KLO1 122126Z 13009KT 12/M09 A3019 RMK A01 T01151086  RH  024%=      5-min Rain = 0
KLO1 122127Z 13008KT 12/M09 A3019 RMK A01 T01151087  RH  023%=      5-min Rain = 0
KLO1 122128Z 12010KT 11/M09 A3019 RMK A01 T01141087  RH  024%=      5-min Rain = 0
KLO1 122129Z 10014KT 12/M09 A3019 RMK A01 T01161085  RH  024%=      5-min Rain = 0
KLO1 122130Z 12013KT 12/M09 A3019 RMK A01 T01161085  RH  024%=      5-min Rain = 0
KLO1 122131Z 12016KT 12/M09 A3019 RMK A01 T01181085  RH  023%=      5-min Rain = 0
KLO1 122132Z 13012KT 12/M09 A3019 RMK A01 T01161087  RH  023%=      5-min Rain = 0
KLO1 122133Z 13011KT 11/M09 A3019 RMK A01 T01131088  RH  024%=      5-min Rain = 0
KLO1 122134Z 15007KT 11/M09 A3019 RMK A01 T01141086  RH  024%=      5-min Rain = 0
KLO1 122135Z 13008KT 12/M09 A3019 RMK A01 T01171085  RH  024%=      5-min Rain = 0
KLO1 122136Z 13011KT 12/M09 A3019 RMK A01 T01181085  RH  023%=      5-min Rain = 0
KLO1 122137Z 14014KT 12/M08 A3019 RMK A01 T01191084  RH  023%=      5-min Rain = 0
KLO1 122138Z 14014KT 12/M09 A3019 RMK A01 T01181085  RH  023%=      5-min Rain = 0
KLO1 122139Z 13010KT 12/M09 A3019 RMK A01 T01171085  RH  024%=      5-min Rain = 0
KLO1 122140Z 15010KT 12/M08 A3019 RMK A01 T01171084  RH  024%=      5-min Rain = 0
KLO1 122141Z 12009KT 12/M08 A3019 RMK A01 T01161084  RH  024%=      5-min Rain = 0
KLO1 122142Z 12010KT 12/M08 A3019 RMK A01 T01181083  RH  024%=      5-min Rain = 0
KLO1 122143Z 13012KT 12/M08 A3019 RMK A01 T01181084  RH  024%=      5-min Rain = 0
KLO1 122144Z 13012KT 12/M08 A3019 RMK A01 T01181083  RH  024%=      5-min Rain = 0
KLO1 122145Z 14013KT 12/M08 A3019 RMK A01 T01181084  RH  024%=      5-min Rain = 0
KLO1 122146Z 14012KT 12/M09 A3019 RMK A01 T01181085  RH  023%=      5-min Rain = 0
KLO1 122147Z 14011KT 12/M09 A3019 RMK A01 T01171085  RH  023%=      5-min Rain = 0
KLO1 122148Z 13009KT 12/M09 A3019 RMK A01 T01171085  RH  023%=      5-min Rain = 0
KLO1 122149Z 12011KT 12/M09 A3019 RMK A01 T01171085  RH  024%=      5-min Rain = 0
KLO1 122150Z 11011KT 12/M09 A3019 RMK A01 T01171085  RH  024%=      5-min Rain = 0
KLO1 122151Z 11014KT 12/M08 A3019 RMK A01 T01181084  RH  023%=      5-min Rain = 0
KLO1 122152Z 12010KT 12/M09 A3019 RMK A01 T01161086  RH  023%=      5-min Rain = 0
KLO1 122153Z 14011G16KT 12/M08 A3019 RMK A01 T01171084  RH  024%=      5-min Rain = 0
KLO1 122154Z 13015KT 12/M08 A3019 RMK A01 T01201082  RH  024%=      5-min Rain = 0
KLO1 122155Z 13013KT 12/M08 A3019 RMK A01 T01201083  RH  023%=      5-min Rain = 0
KLO1 122156Z 14012KT 12/M08 A3019 RMK A01 T01171084  RH  024%=      5-min Rain = 0
KLO1 122157Z 14009KT 12/M08 A3019 RMK A01 T01161083  RH  024%=      5-min Rain = 0
KLO1 122158Z 13008KT 12/M08 A3019 RMK A01 T01151083  RH  024%=      5-min Rain = 0
KLO1 122159Z 12009KT 12/M08 A3019 RMK A01 T01151082  RH  024%=      5-min Rain = 0
KLO1 122200Z 12010KT 12/M08 A3019 RMK A01 T01161082  RH  024%=      5-min Rain = 0
KLO1 122201Z 13012KT 12/M08 A3019 RMK A01 T01171081  RH  024%=      5-min Rain = 0
KLO1 122202Z 14009KT 12/M08 A3019 RMK A01 T01171082  RH  024%=      5-min Rain = 0
KLO1 122203Z 13009KT 12/M08 A3019 RMK A01 T01161082  RH  024%=      5-min Rain = 0
KLO1 122204Z 13010KT 12/M08 A3019 RMK A01 T01171082  RH  024%=      5-min Rain = 0
KLO1 122205Z 12011KT 12/M08 A3019 RMK A01 T01181082  RH  024%=      5-min Rain = 0
KLO1 122206Z 14013KT 12/M08 A3019 RMK A01 T01191082  RH  024%=      5-min Rain = 0
KLO1 122207Z 14010KT 12/M08 A3019 RMK A01 T01201081  RH  024%=      5-min Rain = 0
KLO1 122208Z 14013KT 12/M08 A3019 RMK A01 T01201081  RH  024%=      5-min Rain = 0
KLO1 122209Z 14010KT 12/M08 A3019 RMK A01 T01201081  RH  024%=      5-min Rain = 0
KLO1 122210Z 13010KT 12/M08 A3019 RMK A01 T01201081  RH  024%=      5-min Rain = 0
KLO1 122211Z 13012KT 12/M08 A3019 RMK A01 T01211081  RH  024%=      5-min Rain = 0
KLO1 122212Z 11012KT 12/M08 A3019 RMK A01 T01211082  RH  023%=      5-min Rain = 0
KLO1 122213Z 11013KT 12/M08 A3019 RMK A01 T01211082  RH  023%=      5-min Rain = 0
KLO1 122214Z 12014KT 12/M08 A3019 RMK A01 T01191083  RH  023%=      5-min Rain = 0
KLO1 122215Z 13010KT 12/M09 A3019 RMK A01 T01161085  RH  024%=      5-min Rain = 0
KLO1 122216Z 12010KT 12/M08 A3019 RMK A01 T01151084  RH  024%=      5-min Rain = 0
KLO1 122217Z 12012KT 12/M08 A3019 RMK A01 T01171081  RH  024%=      5-min Rain = 0
KLO1 122218Z 12010G15KT 12/M08 A3019 RMK A01 T01191080  RH  024%=      5-min Rain = 0
KLO1 122219Z 11010KT 12/M08 A3019 RMK A01 T01221081  RH  024%=      5-min Rain = 0
KLO1 122220Z 12011KT 12/M08 A3019 RMK A01 T01211081  RH  023%=      5-min Rain = 0
KLO1 122221Z 12014KT 12/M08 A3019 RMK A01 T01211081  RH  024%=      5-min Rain = 0
KLO1 122222Z 12014KT 12/M08 A3019 RMK A01 T01201080  RH  024%=      5-min Rain = 0
KLO1 122223Z 12013KT 12/M08 A3019 RMK A01 T01191080  RH  024%=      5-min Rain = 0
KLO1 122224Z 13013KT 12/M08 A3019 RMK A01 T01191079  RH  024%=      5-min Rain = 0
KLO1 122225Z 13012KT 12/M08 A3019 RMK A01 T01201078  RH  024%=      5-min Rain = 0
KLO1 122226Z 12014KT 12/M08 A3019 RMK A01 T01201080  RH  024%=      5-min Rain = 0
KLO1 122227Z 14011KT 12/M08 A3019 RMK A01 T01201081  RH  024%=      5-min Rain = 0
KLO1 122228Z 14010KT 12/M08 A3019 RMK A01 T01211082  RH  024%=      5-min Rain = 0
KLO1 122229Z 13009KT 12/M08 A3018 RMK A01 T01201083  RH  023%=      5-min Rain = 0
KLO1 122230Z 11010KT 12/M08 A3019 RMK A01 T01191083  RH  024%=      5-min Rain = 0
KLO1 122231Z 12009KT 12/M08 A3018 RMK A01 T01191082  RH  024%=      5-min Rain = 0
KLO1 122232Z 13015KT 12/M08 A3018 RMK A01 T01181081  RH  024%=      5-min Rain = 0
KLO1 122233Z 13013KT 12/M08 A3018 RMK A01 T01191079  RH  024%=      5-min Rain = 0
KLO1 122234Z 11014G20KT 12/M08 A3018 RMK A01 T01181078  RH  025%=      5-min Rain = 0
KLO1 122235Z 13015KT 12/M08 A3018 RMK A01 T01191075  RH  025%=      5-min Rain = 0
KLO1 122236Z 14015KT 12/M07 A3018 RMK A01 T01211074  RH  025%=      5-min Rain = 0
KLO1 122237Z 15014KT 12/M07 A3018 RMK A01 T01221074  RH  025%=      5-min Rain = 0
KLO1 122238Z 14013KT 12/M08 A3018 RMK A01 T01211075  RH  025%=      5-min Rain = 0
KLO1 122239Z 14012KT 12/M08 A3018 RMK A01 T01211075  RH  025%=      5-min Rain = 0
KLO1 122240Z 14013KT 12/M08 A3018 RMK A01 T01201076  RH  025%=      5-min Rain = 0
KLO1 122241Z 14014KT 12/M08 A3018 RMK A01 T01211076  RH  025%=      5-min Rain = 0
KLO1 122242Z 14014KT 12/M08 A3018 RMK A01 T01211076  RH  025%=      5-min Rain = 0
KLO1 122243Z 13012KT 12/M08 A3018 RMK A01 T01201077  RH  024%=      5-min Rain = 0
KLO1 122244Z 12012KT 12/M08 A3018 RMK A01 T01211077  RH  024%=      5-min Rain = 0
KLO1 122245Z 12011KT 12/M08 A3018 RMK A01 T01211077  RH  024%=      5-min Rain = 0
KLO1 122246Z 12011KT 12/M08 A3018 RMK A01 T01201078  RH  024%=      5-min Rain = 0
KLO1 122247Z 11008KT 12/M08 A3018 RMK A01 T01181078  RH  025%=      5-min Rain = 0
KLO1 122248Z 11011KT 12/M08 A3018 RMK A01 T01171078  RH  025%=      5-min Rain = 0
KLO1 122249Z 13013KT 12/M08 A3018 RMK A01 T01191076  RH  025%=      5-min Rain = 0
KLO1 122250Z 13014KT 12/M08 A3018 RMK A01 T01201075  RH  025%=      5-min Rain = 0
KLO1 122251Z 12014KT 12/M07 A3018 RMK A01 T01201074  RH  025%=      5-min Rain = 0
KLO1 122252Z 12013KT 12/M08 A3018 RMK A01 T01201075  RH  025%=      5-min Rain = 0
KLO1 122253Z 12011KT 12/M07 A3018 RMK A01 T01211074  RH  025%=      5-min Rain = 0
KLO1 122254Z 13011KT 12/M07 A3018 RMK A01 T01221074  RH  025%=      5-min Rain = 0
KLO1 122255Z 12009KT 12/M08 A3018 RMK A01 T01221075  RH  025%=      5-min Rain = 0
KLO1 122256Z 13011KT 12/M08 A3019 RMK A01 T01221076  RH  024%=      5-min Rain = 0
KLO1 122257Z 13009KT 12/M08 A3018 RMK A01 T01191078  RH  024%=      5-min Rain = 0
KLO1 122258Z 13009KT 12/M08 A3018 RMK A01 T01191077  RH  025%=      5-min Rain = 0
KLO1 122259Z 12010KT 12/M08 A3018 RMK A01 T01191077  RH  025%=      5-min Rain = 0
KLO1 122300Z 11011G18KT 12/M08 A3018 RMK A01 T01191077  RH  025%=      5-min Rain = 0
KLO1 122301Z 12014KT 12/M08 A3018 RMK A01 T01201076  RH  025%=      5-min Rain = 0
KLO1 122302Z 13013KT 12/M07 A3018 RMK A01 T01211074  RH  025%=      5-min Rain = 0
KLO1 122303Z 13013KT 12/M07 A3018 RMK A01 T01211072  RH  025%=      5-min Rain = 0
KLO1 122304Z 13014KT 12/M07 A3018 RMK A01 T01201073  RH  025%=      5-min Rain = 0
KLO1 122305Z 13014KT 12/M07 A3018 RMK A01 T01191074  RH  025%=      5-min Rain = 0
KLO1 122306Z 12014KT 12/M08 A3018 RMK A01 T01181075  RH  025%=      5-min Rain = 0
KLO1 122307Z 12012KT 12/M08 A3018 RMK A01 T01181075  RH  025%=      5-min Rain = 0
KLO1 122308Z 12010KT 12/M08 A3018 RMK A01 T01171075  RH  025%=      5-min Rain = 0
KLO1 122309Z 12011G17KT 12/M07 A3018 RMK A01 T01181074  RH  025%=      5-min Rain = 0
KLO1 122310Z 13017KT 12/M07 A3018 RMK A01 T01191074  RH  025%=      5-min Rain = 0
KLO1 122311Z 12016KT 12/M07 A3018 RMK A01 T01191074  RH  025%=      5-min Rain = 0
KLO1 122312Z 13014KT 12/M08 A3018 RMK A01 T01171075  RH  025%=      5-min Rain = 0
KLO1 122313Z 13013KT 12/M08 A3018 RMK A01 T01171075  RH  025%=      5-min Rain = 0
KLO1 122314Z 14012KT 12/M07 A3018 RMK A01 T01181074  RH  025%=      5-min Rain = 0
KLO1 122315Z 14010KT 12/M07 A3018 RMK A01 T01181074  RH  025%=      5-min Rain = 0
KLO1 122316Z 13012KT 12/M07 A3018 RMK A01 T01181074  RH  025%=      5-min Rain = 0
KLO1 122317Z 13013KT 12/M07 A3018 RMK A01 T01191074  RH  025%=      5-min Rain = 0
KLO1 122318Z 13014KT 12/M07 A3018 RMK A01 T01191074  RH  025%=      5-min Rain = 0
KLO1 122319Z 12012KT 12/M07 A3018 RMK A01 T01191074  RH  025%=      5-min Rain = 0
KLO1 122320Z 11012KT 12/M07 A3018 RMK A01 T01191074  RH  025%=      5-min Rain = 0
KLO1 122321Z 11011KT 12/M08 A3018 RMK A01 T01171075  RH  025%=      5-min Rain = 0
KLO1 122322Z 12010KT 12/M07 A3018 RMK A01 T01171074  RH  026%=      5-min Rain = 0
KLO1 122323Z 12012KT 12/M07 A3018 RMK A01 T01171073  RH  026%=      5-min Rain = 0
KLO1 122324Z 12011KT 12/M07 A3018 RMK A01 T01181073  RH  026%=      5-min Rain = 0
KLO1 122325Z 13010KT 12/M07 A3018 RMK A01 T01191073  RH  026%=      5-min Rain = 0
KLO1 122326Z 13009KT 12/M07 A3018 RMK A01 T01191072  RH  026%=      5-min Rain = 0
KLO1 122327Z 14011KT 12/M07 A3018 RMK A01 T01201071  RH  026%=      5-min Rain = 0
KLO1 122328Z 14010KT 12/M07 A3018 RMK A01 T01191072  RH  025%=      5-min Rain = 0
KLO1 122329Z 13011KT 12/M07 A3018 RMK A01 T01191072  RH  026%=      5-min Rain = 0
KLO1 122330Z 12013KT 12/M07 A3018 RMK A01 T01191073  RH  026%=      5-min Rain = 0
KLO1 122331Z 12014KT 12/M07 A3018 RMK A01 T01191073  RH  025%=      5-min Rain = 0
KLO1 122332Z 12013KT 12/M07 A3018 RMK A01 T01181073  RH  026%=      5-min Rain = 0
KLO1 122333Z 12012KT 12/M07 A3018 RMK A01 T01171073  RH  026%=      5-min Rain = 0
KLO1 122334Z 12012KT 12/M07 A3018 RMK A01 T01171073  RH  026%=      5-min Rain = 0
KLO1 122335Z 12012KT 12/M07 A3018 RMK A01 T01171073  RH  026%=      5-min Rain = 0
KLO1 122336Z 11013KT 12/M07 A3018 RMK A01 T01171074  RH  026%=      5-min Rain = 0
KLO1 122337Z 12013KT 12/M07 A3018 RMK A01 T01171074  RH  026%=      5-min Rain = 0
KLO1 122338Z 12012KT 12/M07 A3018 RMK A01 T01161074  RH  026%=      5-min Rain = 0
KLO1 122339Z 13013KT 12/M07 A3018 RMK A01 T01161074  RH  026%=      5-min Rain = 0
KLO1 122340Z 12013KT 12/M08 A3018 RMK A01 T01161075  RH  026%=      5-min Rain = 0
KLO1 122341Z 12012KT 12/M08 A3018 RMK A01 T01151075  RH  026%=      5-min Rain = 0
KLO1 122342Z 11010KT 12/M08 A3018 RMK A01 T01151075  RH  026%=      5-min Rain = 0
KLO1 122343Z 11014G19KT 12/M07 A3018 RMK A01 T01161074  RH  026%=      5-min Rain = 0
KLO1 122344Z 12014KT 12/M07 A3018 RMK A01 T01161074  RH  026%=      5-min Rain = 0
KLO1 122345Z 12014KT 12/M07 A3018 RMK A01 T01151074  RH  026%=      5-min Rain = 0
KLO1 122346Z 13013KT 12/M07 A3018 RMK A01 T01151074  RH  026%=      5-min Rain = 0
KLO1 122347Z 13012KT 12/M07 A3018 RMK A01 T01151074  RH  026%=      5-min Rain = 0
KLO1 122348Z 13013KT 12/M07 A3018 RMK A01 T01151074  RH  026%=      5-min Rain = 0
KLO1 122349Z 12012KT 12/M07 A3018 RMK A01 T01151074  RH  026%=      5-min Rain = 0
KLO1 122350Z 12013KT 12/M07 A3018 RMK A01 T01151073  RH  026%=      5-min Rain = 0
KLO1 122351Z 12014KT 11/M07 A3018 RMK A01 T01141074  RH  026%=      5-min Rain = 0
KLO1 122352Z 12012KT 11/M07 A3018 RMK A01 T01141073  RH  026%=      5-min Rain = 0
KLO1 122353Z 13011KT 11/M07 A3018 RMK A01 T01141073  RH  026%=      5-min Rain = 0
KLO1 122354Z 13011KT 11/M07 A3018 RMK A01 T01141073  RH  026%=      5-min Rain = 0
KLO1 122355Z 13012KT 11/M07 A3018 RMK A01 T01141074  RH  026%=      5-min Rain = 0
KLO1 122356Z 13010KT 11/M07 A3018 RMK A01 T01141074  RH  026%=      5-min Rain = 0
KLO1 122357Z 12011KT 11/M07 A3018 RMK A01 T01141074  RH  026%=      5-min Rain = 0
KLO1 122358Z 12011KT 11/M08 A3018 RMK A01 T01141075  RH  026%=      5-min Rain = 0
KLO1 122359Z 11011KT 11/M08 A3018 RMK A01 T01131075  RH  026%=      5-min Rain = 0
KLO1 130000Z 12012KT 11/M08 A3018 RMK A01 T01121075  RH  026%=      5-min Rain = 0
KLO1 130001Z 12011KT 11/M08 A3018 RMK A01 T01121075  RH  026%=      5-min Rain = 0
KLO1 130002Z 11011KT 11/M08 A3018 RMK A01 T01121075  RH  026%=      5-min Rain = 0
KLO1 130003Z 11013KT 11/M08 A3019 RMK A01 T01111075  RH  026%=      5-min Rain = 0
KLO1 130004Z 11013KT 11/M08 A3019 RMK A01 T01111075  RH  026%=      5-min Rain = 0
KLO1 130005Z 12011KT 11/M08 A3018 RMK A01 T01101076  RH  026%=      5-min Rain = 0
KLO1 130006Z 11010KT 11/M08 A3018 RMK A01 T01101075  RH  027%=      5-min Rain = 0
KLO1 130007Z 11012KT 11/M08 A3018 RMK A01 T01091076  RH  027%=      5-min Rain = 0
KLO1 130008Z 11013KT 11/M08 A3019 RMK A01 T01091076  RH  027%=      5-min Rain = 0
KLO1 130009Z 10012KT 11/M08 A3018 RMK A01 T01081076  RH  027%=      5-min Rain = 0
KLO1 130010Z 10011KT 11/M08 A3018 RMK A01 T01081076  RH  027%=      5-min Rain = 0
KLO1 130011Z 10010KT 11/M08 A3018 RMK A01 T01071076  RH  027%=      5-min Rain = 0
KLO1 130012Z 10011KT 11/M08 A3018 RMK A01 T01071077  RH  027%=      5-min Rain = 0
KLO1 130013Z 10011KT 11/M08 A3018 RMK A01 T01061076  RH  027%=      5-min Rain = 0
KLO1 130014Z 11012KT 11/M08 A3018 RMK A01 T01061077  RH  027%=      5-min Rain = 0
KLO1 130015Z 10010KT 11/M08 A3018 RMK A01 T01051077  RH  027%=      5-min Rain = 0
KLO1 130016Z 11008KT 11/M08 A3018 RMK A01 T01051077  RH  027%=      5-min Rain = 0
KLO1 130017Z 11010KT 10/M08 A3018 RMK A01 T01041078  RH  027%=      5-min Rain = 0
KLO1 130018Z 11009KT 10/M08 A3018 RMK A01 T01041077  RH  027%=      5-min Rain = 0
KLO1 130019Z 11010KT 10/M08 A3019 RMK A01 T01031077  RH  027%=      5-min Rain = 0
KLO1 130020Z 10011KT 10/M08 A3019 RMK A01 T01031077  RH  027%=      5-min Rain = 0
KLO1 130021Z 10010KT 10/M08 A3019 RMK A01 T01031077  RH  027%=      5-min Rain = 0
KLO1 130022Z 10010KT 10/M08 A3019 RMK A01 T01031077  RH  027%=      5-min Rain = 0
KLO1 130023Z 10011KT 10/M08 A3019 RMK A01 T01011078  RH  028%=      5-min Rain = 0
KLO1 130024Z 10011KT 10/M08 A3019 RMK A01 T01011078  RH  028%=      5-min Rain = 0
KLO1 130025Z 11011KT 10/M08 A3019 RMK A01 T01001078  RH  028%=      5-min Rain = 0
KLO1 130026Z 10010KT 10/M08 A3019 RMK A01 T01001077  RH  028%=      5-min Rain = 0
KLO1 130027Z 10011KT 10/M08 A3019 RMK A01 T00991078  RH  028%=      5-min Rain = 0
KLO1 130028Z 10010KT 10/M08 A3019 RMK A01 T00991078  RH  028%=      5-min Rain = 0
KLO1 130029Z 10010KT 10/M08 A3019 RMK A01 T00991078  RH  028%=      5-min Rain = 0
KLO1 130030Z 10010KT 10/M08 A3019 RMK A01 T00981078  RH  028%=      5-min Rain = 0
KLO1 130031Z 10011KT 10/M08 A3019 RMK A01 T00971078  RH  028%=      5-min Rain = 0
KLO1 130032Z 10010KT 10/M08 A3019 RMK A01 T00971078  RH  028%=      5-min Rain = 0
KLO1 130033Z 10010KT 10/M08 A3019 RMK A01 T00971078  RH  028%=      5-min Rain = 0
KLO1 130034Z 10010KT 10/M08 A3019 RMK A01 T00961078  RH  028%=      5-min Rain = 0
KLO1 130035Z 10010KT 10/M08 A3019 RMK A01 T00961078  RH  028%=      5-min Rain = 0
KLO1 130036Z 10010KT 10/M08 A3019 RMK A01 T00951079  RH  029%=      5-min Rain = 0
KLO1 130037Z 10012KT 10/M08 A3019 RMK A01 T00951078  RH  029%=      5-min Rain = 0
KLO1 130038Z 10010KT 10/M08 A3019 RMK A01 T00951078  RH  029%=      5-min Rain = 0
KLO1 130039Z 10011KT 10/M08 A3019 RMK A01 T00951078  RH  029%=      5-min Rain = 0
KLO1 130040Z 10009KT 09/M08 A3019 RMK A01 T00941079  RH  029%=      5-min Rain = 0
KLO1 130041Z 10009KT 09/M08 A3019 RMK A01 T00931079  RH  029%=      5-min Rain = 0
KLO1 130042Z 10010KT 09/M08 A3019 RMK A01 T00921079  RH  029%=      5-min Rain = 0
KLO1 130043Z 10009KT 09/M08 A3019 RMK A01 T00921078  RH  029%=      5-min Rain = 0
KLO1 130044Z 10008KT 09/M08 A3019 RMK A01 T00911079  RH  029%=      5-min Rain = 0
KLO1 130045Z 10009KT 09/M08 A3019 RMK A01 T00901080  RH  029%=      5-min Rain = 0
KLO1 130046Z 10009KT 09/M08 A302 RMK A01 T00901079  RH  029%=      5-min Rain = 0
KLO1 130047Z 10009KT 09/M08 A302 RMK A01 T00901079  RH  029%=      5-min Rain = 0
KLO1 130048Z 10008KT 09/M08 A302 RMK A01 T00901079  RH  029%=      5-min Rain = 0
KLO1 130049Z 10008KT 09/M08 A302 RMK A01 T00891080  RH  029%=      5-min Rain = 0
KLO1 130050Z 10008KT 09/M08 A302 RMK A01 T00881080  RH  030%=      5-min Rain = 0
KLO1 130051Z 10009KT 09/M08 A302 RMK A01 T00881080  RH  030%=      5-min Rain = 0
KLO1 130052Z 10009KT 09/M08 A302 RMK A01 T00881079  RH  030%=      5-min Rain = 0
KLO1 130053Z 10009KT 09/M08 A302 RMK A01 T00881079  RH  030%=      5-min Rain = 0
KLO1 130054Z 10009KT 09/M08 A302 RMK A01 T00871079  RH  030%=      5-min Rain = 0
KLO1 130055Z 10009KT 09/M08 A302 RMK A01 T00861080  RH  030%=      5-min Rain = 0
KLO1 130056Z 10009KT 09/M08 A302 RMK A01 T00861080  RH  030%=      5-min Rain = 0
KLO1 130057Z 10008KT 09/M08 A302 RMK A01 T00861080  RH  030%=      5-min Rain = 0
KLO1 130058Z 10009KT 09/M08 A302 RMK A01 T00851080  RH  030%=      5-min Rain = 0
KLO1 130059Z 10009KT 09/M08 A302 RMK A01 T00851079  RH  030%=      5-min Rain = 0
KLO1 130100Z 10009KT 09/M08 A302 RMK A01 T00851079  RH  030%=      5-min Rain = 0
KLO1 130101Z 10009KT 09/M08 A302 RMK A01 T00851079  RH  030%=      5-min Rain = 0
KLO1 130102Z 10008KT 08/M08 A302 RMK A01 T00841080  RH  030%=      5-min Rain = 0
KLO1 130103Z 10008KT 08/M08 A302 RMK A01 T00841080  RH  031%=      5-min Rain = 0
KLO1 130104Z 10008KT 08/M08 A302 RMK A01 T00831080  RH  031%=      5-min Rain = 0
KLO1 130105Z 10008KT 08/M08 A302 RMK A01 T00831080  RH  031%=      5-min Rain = 0
KLO1 130106Z 10009KT 08/M08 A302 RMK A01 T00831080  RH  031%=      5-min Rain = 0
KLO1 130107Z 10009KT 08/M08 A302 RMK A01 T00831079  RH  031%=      5-min Rain = 0
KLO1 130108Z 10008KT 08/M08 A302 RMK A01 T00821080  RH  031%=      5-min Rain = 0
KLO1 130109Z 10008KT 08/M08 A302 RMK A01 T00821080  RH  031%=      5-min Rain = 0
KLO1 130110Z 10007KT 08/M08 A302 RMK A01 T00811080  RH  031%=      5-min Rain = 0
KLO1 130111Z 10008KT 08/M08 A302 RMK A01 T00821080  RH  031%=      5-min Rain = 0
KLO1 130112Z 10008KT 08/M08 A302 RMK A01 T00821080  RH  031%=      5-min Rain = 0
KLO1 130113Z 10008KT 08/M08 A302 RMK A01 T00811080  RH  031%=      5-min Rain = 0
KLO1 130114Z 10008KT 08/M08 A302 RMK A01 T00811080  RH  031%=      5-min Rain = 0
KLO1 130115Z 10008KT 08/M08 A302 RMK A01 T00801080  RH  031%=      5-min Rain = 0
KLO1 130116Z 10008KT 08/M08 A302 RMK A01 T00801079  RH  031%=      5-min Rain = 0
KLO1 130117Z 10007KT 08/M08 A302 RMK A01 T00791081  RH  031%=      5-min Rain = 0
KLO1 130118Z 10007KT 08/M08 A302 RMK A01 T00781081  RH  031%=      5-min Rain = 0
KLO1 130119Z 10008KT 08/M08 A302 RMK A01 T00781081  RH  032%=      5-min Rain = 0
KLO1 130120Z 10007KT 08/M08 A302 RMK A01 T00771081  RH  032%=      5-min Rain = 0
KLO1 130121Z 10007KT 08/M08 A302 RMK A01 T00771081  RH  032%=      5-min Rain = 0
KLO1 130122Z 10007KT 08/M08 A302 RMK A01 T00761082  RH  032%=      5-min Rain = 0
KLO1 130123Z 10007KT 08/M08 A302 RMK A01 T00751082  RH  032%=      5-min Rain = 0
KLO1 130124Z 10008KT 07/M08 A302 RMK A01 T00741081  RH  032%=      5-min Rain = 0
KLO1 130125Z 10007KT 07/M08 A302 RMK A01 T00741081  RH  032%=      5-min Rain = 0
KLO1 130126Z 10007KT 07/M08 A302 RMK A01 T00741082  RH  032%=      5-min Rain = 0
KLO1 130127Z 10007KT 07/M08 A302 RMK A01 T00741082  RH  032%=      5-min Rain = 0
KLO1 130128Z 10008KT 07/M08 A302 RMK A01 T00731081  RH  032%=      5-min Rain = 0
KLO1 130129Z 10008KT 07/M08 A302 RMK A01 T00731081  RH  032%=      5-min Rain = 0
KLO1 130130Z 10007KT 07/M08 A302 RMK A01 T00741081  RH  032%=      5-min Rain = 0
KLO1 130131Z 10007KT 07/M08 A302 RMK A01 T00731081  RH  032%=      5-min Rain = 0
KLO1 130132Z 10008KT 07/M08 A302 RMK A01 T00741081  RH  032%=      5-min Rain = 0
KLO1 130133Z 10007KT 07/M08 A3021 RMK A01 T00741081  RH  032%=      5-min Rain = 0
KLO1 130134Z 10007KT 07/M08 A3021 RMK A01 T00731081  RH  032%=      5-min Rain = 0
KLO1 130135Z 10007KT 07/M08 A3021 RMK A01 T00731082  RH  032%=      5-min Rain = 0
KLO1 130136Z 10007KT 07/M08 A3021 RMK A01 T00731082  RH  032%=      5-min Rain = 0
KLO1 130137Z 10007KT 07/M08 A302 RMK A01 T00721082  RH  032%=      5-min Rain = 0
KLO1 130138Z 10007KT 07/M08 A302 RMK A01 T00721082  RH  033%=      5-min Rain = 0
KLO1 130139Z 10008KT 07/M08 A302 RMK A01 T00711082  RH  033%=      5-min Rain = 0
KLO1 130140Z 10007KT 07/M08 A3021 RMK A01 T00701083  RH  033%=      5-min Rain = 0
KLO1 130141Z 10007KT 07/M08 A3021 RMK A01 T00701083  RH  033%=      5-min Rain = 0
KLO1 130142Z 10007KT 07/M08 A3021 RMK A01 T00691083  RH  033%=      5-min Rain = 0
KLO1 130143Z 10006KT 07/M08 A3021 RMK A01 T00691083  RH  033%=      5-min Rain = 0
KLO1 130144Z 10006KT 07/M08 A3021 RMK A01 T00671084  RH  033%=      5-min Rain = 0
KLO1 130145Z 10006KT 07/M08 A3021 RMK A01 T00661084  RH  033%=      5-min Rain = 0
KLO1 130146Z 10006KT 07/M08 A3021 RMK A01 T00651084  RH  034%=      5-min Rain = 0
KLO1 130147Z 09006KT 06/M08 A3021 RMK A01 T00641084  RH  034%=      5-min Rain = 0
KLO1 130148Z 09006KT 06/M09 A3021 RMK A01 T00631085  RH  034%=      5-min Rain = 0
KLO1 130149Z 09006KT 06/M09 A3021 RMK A01 T00631085  RH  034%=      5-min Rain = 0
KLO1 130150Z 09006KT 06/M08 A3021 RMK A01 T00621084  RH  034%=      5-min Rain = 0
KLO1 130151Z 09006KT 06/M08 A3021 RMK A01 T00621084  RH  034%=      5-min Rain = 0
KLO1 130152Z 09006KT 06/M08 A3021 RMK A01 T00621084  RH  034%=      5-min Rain = 0
KLO1 130153Z 09006KT 06/M09 A3021 RMK A01 T00611085  RH  034%=      5-min Rain = 0
KLO1 130154Z 09005KT 06/M09 A3021 RMK A01 T00611085  RH  034%=      5-min Rain = 0
KLO1 130155Z 09005KT 06/M09 A3021 RMK A01 T00601085  RH  035%=      5-min Rain = 0
KLO1 130156Z 09005KT 06/M09 A3021 RMK A01 T00591086  RH  035%=      5-min Rain = 0
KLO1 130157Z 09005KT 06/M09 A3021 RMK A01 T00581086  RH  035%=      5-min Rain = 0
KLO1 130158Z 09005KT 06/M09 A3021 RMK A01 T00571086  RH  035%=      5-min Rain = 0
KLO1 130159Z 09005KT 06/M09 A3021 RMK A01 T00561086  RH  035%=      5-min Rain = 0
KLO1 130200Z 09005KT 06/M09 A3021 RMK A01 T00561086  RH  035%=      5-min Rain = 0
KLO1 130201Z 09005KT 06/M09 A3021 RMK A01 T00561086  RH  035%=      5-min Rain = 0
KLO1 130202Z 09005KT 06/M09 A3021 RMK A01 T00561086  RH  035%=      5-min Rain = 0
KLO1 130203Z 09005KT 06/M09 A3021 RMK A01 T00551086  RH  035%=      5-min Rain = 0
KLO1 130204Z 09005KT 06/M09 A3021 RMK A01 T00551086  RH  036%=      5-min Rain = 0
KLO1 130205Z 10005KT 05/M09 A3021 RMK A01 T00541086  RH  036%=      5-min Rain = 0
KLO1 130206Z 10005KT 05/M09 A3021 RMK A01 T00541086  RH  036%=      5-min Rain = 0
KLO1 130207Z 10005KT 05/M09 A3021 RMK A01 T00541086  RH  036%=      5-min Rain = 0
KLO1 130208Z 10005KT 05/M09 A3021 RMK A01 T00541086  RH  036%=      5-min Rain = 0
KLO1 130209Z 10005KT 05/M09 A3021 RMK A01 T00541086  RH  036%=      5-min Rain = 0
KLO1 130210Z 10005KT 05/M09 A3021 RMK A01 T00541086  RH  036%=      5-min Rain = 0
KLO1 130211Z 10005KT 05/M09 A3021 RMK A01 T00541086  RH  036%=      5-min Rain = 0
KLO1 130212Z 11005KT 05/M09 A3021 RMK A01 T00541086  RH  036%=      5-min Rain = 0
KLO1 130213Z 10005KT 05/M09 A3021 RMK A01 T00541087  RH  036%=      5-min Rain = 0
KLO1 130214Z 11006KT 05/M09 A3021 RMK A01 T00531087  RH  036%=      5-min Rain = 0
KLO1 130215Z 11005KT 05/M09 A3021 RMK A01 T00531087  RH  036%=      5-min Rain = 0
KLO1 130216Z 11006KT 05/M09 A3021 RMK A01 T00531087  RH  036%=      5-min Rain = 0
KLO1 130217Z 11006KT 05/M09 A3021 RMK A01 T00521087  RH  036%=      5-min Rain = 0
KLO1 130218Z 11006KT 05/M09 A3022 RMK A01 T00521087  RH  036%=      5-min Rain = 0
KLO1 130219Z 11006KT 05/M09 A3022 RMK A01 T00531087  RH  036%=      5-min Rain = 0
KLO1 130220Z 11006KT 05/M09 A3022 RMK A01 T00521087  RH  036%=      5-min Rain = 0
KLO1 130221Z 11006KT 05/M09 A3022 RMK A01 T00531087  RH  036%=      5-min Rain = 0
KLO1 130222Z 11006KT 05/M09 A3022 RMK A01 T00531087  RH  036%=      5-min Rain = 0
KLO1 130223Z 11007KT 05/M09 A3022 RMK A01 T00531087  RH  036%=      5-min Rain = 0
KLO1 130224Z 11007KT 05/M09 A3022 RMK A01 T00531087  RH  036%=      5-min Rain = 0
KLO1 130225Z 11007KT 05/M09 A3022 RMK A01 T00531087  RH  036%=      5-min Rain = 0
KLO1 130226Z 11007KT 05/M09 A3022 RMK A01 T00531086  RH  036%=      5-min Rain = 0
KLO1 130227Z 11006KT 05/M09 A3022 RMK A01 T00531086  RH  036%=      5-min Rain = 0
KLO1 130228Z 11006KT 05/M09 A3022 RMK A01 T00531086  RH  036%=      5-min Rain = 0
KLO1 130229Z 11006KT 05/M09 A3022 RMK A01 T00531086  RH  036%=      5-min Rain = 0
KLO1 130230Z 11006KT 05/M09 A3022 RMK A01 T00531086  RH  036%=      5-min Rain = 0
KLO1 130231Z 11006KT 05/M09 A3022 RMK A01 T00531086  RH  036%=      5-min Rain = 0
KLO1 130232Z 11006KT 05/M09 A3022 RMK A01 T00531086  RH  036%=      5-min Rain = 0
KLO1 130233Z 11006KT 05/M09 A3022 RMK A01 T00531086  RH  036%=      5-min Rain = 0
KLO1 130234Z 11006KT 05/M09 A3022 RMK A01 T00531086  RH  036%=      5-min Rain = 0
KLO1 130235Z 11006KT 05/M09 A3022 RMK A01 T00521087  RH  036%=      5-min Rain = 0
KLO1 130236Z 11006KT 05/M09 A3022 RMK A01 T00521087  RH  036%=      5-min Rain = 0
KLO1 130237Z 10006KT 05/M09 A3022 RMK A01 T00521087  RH  036%=      5-min Rain = 0
KLO1 130238Z 10006KT 05/M09 A3022 RMK A01 T00521086  RH  036%=      5-min Rain = 0
KLO1 130239Z 10006KT 05/M09 A3022 RMK A01 T00511087  RH  036%=      5-min Rain = 0
KLO1 130240Z 10006KT 05/M09 A3022 RMK A01 T00511086  RH  036%=      5-min Rain = 0
KLO1 130241Z 10006KT 05/M09 A3022 RMK A01 T00511087  RH  036%=      5-min Rain = 0
KLO1 130242Z 10006KT 05/M09 A3022 RMK A01 T00501087  RH  036%=      5-min Rain = 0
KLO1 130243Z 10006KT 05/M09 A3022 RMK A01 T00501087  RH  036%=      5-min Rain = 0
KLO1 130244Z 10006KT 05/M09 A3022 RMK A01 T00501087  RH  036%=      5-min Rain = 0
KLO1 130245Z 10006KT 05/M09 A3022 RMK A01 T00491087  RH  036%=      5-min Rain = 0
KLO1 130246Z 10006KT 05/M09 A3022 RMK A01 T00491087  RH  037%=      5-min Rain = 0
KLO1 130247Z 10006KT 05/M09 A3022 RMK A01 T00481087  RH  037%=      5-min Rain = 0
KLO1 130248Z 10006KT 05/M09 A3022 RMK A01 T00481087  RH  037%=      5-min Rain = 0
KLO1 130249Z 11006KT 05/M09 A3022 RMK A01 T00481088  RH  037%=      5-min Rain = 0
KLO1 130250Z 11006KT 05/M09 A3022 RMK A01 T00471087  RH  037%=      5-min Rain = 0
KLO1 130251Z 11006KT 05/M09 A3022 RMK A01 T00471088  RH  037%=      5-min Rain = 0
KLO1 130252Z 11006KT 05/M09 A3022 RMK A01 T00471087  RH  037%=      5-min Rain = 0
KLO1 130253Z 11005KT 05/M09 A3022 RMK A01 T00471087  RH  037%=      5-min Rain = 0
KLO1 130254Z 11005KT 05/M09 A3022 RMK A01 T00471087  RH  037%=      5-min Rain = 0
KLO1 130255Z 11005KT 05/M09 A3022 RMK A01 T00471087  RH  037%=      5-min Rain = 0
KLO1 130256Z 11005KT 05/M09 A3022 RMK A01 T00461088  RH  037%=      5-min Rain = 0
KLO1 130257Z 11005KT 05/M09 A3022 RMK A01 T00461088  RH  037%=      5-min Rain = 0
KLO1 130258Z 11005KT 05/M09 A3022 RMK A01 T00451088  RH  037%=      5-min Rain = 0
KLO1 130259Z 11005KT 05/M09 A3022 RMK A01 T00451089  RH  037%=      5-min Rain = 0
KLO1 130300Z 11005KT 04/M09 A3022 RMK A01 T00441089  RH  037%=      5-min Rain = 0
KLO1 130301Z 11006KT 04/M09 A3022 RMK A01 T00441088  RH  038%=      5-min Rain = 0
KLO1 130302Z 11006KT 04/M09 A3022 RMK A01 T00431089  RH  038%=      5-min Rain = 0
KLO1 130303Z 11006KT 04/M09 A3022 RMK A01 T00431088  RH  038%=      5-min Rain = 0
KLO1 130304Z 12006KT 04/M09 A3022 RMK A01 T00431088  RH  038%=      5-min Rain = 0
KLO1 130305Z 12006KT 04/M09 A3022 RMK A01 T00431089  RH  038%=      5-min Rain = 0
KLO1 130306Z 12006KT 04/M09 A3022 RMK A01 T00421089  RH  038%=      5-min Rain = 0
KLO1 130307Z 12006KT 04/M09 A3022 RMK A01 T00411089  RH  038%=      5-min Rain = 0
KLO1 130308Z 12006KT 04/M09 A3022 RMK A01 T00411089  RH  038%=      5-min Rain = 0
KLO1 130309Z 12006KT 04/M09 A3022 RMK A01 T00411089  RH  038%=      5-min Rain = 0
KLO1 130310Z 12006KT 04/M09 A3022 RMK A01 T00401090  RH  038%=      5-min Rain = 0
KLO1 130311Z 12006KT 04/M09 A3022 RMK A01 T00401090  RH  038%=      5-min Rain = 0
KLO1 130312Z 11006KT 04/M09 A3022 RMK A01 T00401090  RH  038%=      5-min Rain = 0
KLO1 130313Z 11005KT 04/M09 A3022 RMK A01 T00391090  RH  038%=      5-min Rain = 0
KLO1 130314Z 11005KT 04/M09 A3022 RMK A01 T00401089  RH  039%=      5-min Rain = 0
KLO1 130315Z 11006KT 04/M09 A3022 RMK A01 T00401089  RH  039%=      5-min Rain = 0
KLO1 130316Z 11006KT 04/M09 A3022 RMK A01 T00401089  RH  039%=      5-min Rain = 0
KLO1 130317Z 11006KT 04/M09 A3022 RMK A01 T00401089  RH  039%=      5-min Rain = 0
KLO1 130318Z 11006KT 04/M09 A3022 RMK A01 T00401089  RH  039%=      5-min Rain = 0
KLO1 130319Z 10006KT 04/M09 A3022 RMK A01 T00401089  RH  039%=      5-min Rain = 0
KLO1 130320Z 10005KT 04/M09 A3023 RMK A01 T00401088  RH  039%=      5-min Rain = 0
KLO1 130321Z 10005KT 04/M09 A3023 RMK A01 T00401088  RH  039%=      5-min Rain = 0
KLO1 130322Z 10005KT 04/M09 A3023 RMK A01 T00401088  RH  039%=      5-min Rain = 0
KLO1 130323Z 09005KT 04/M09 A3023 RMK A01 T00401088  RH  039%=      5-min Rain = 0
KLO1 130324Z 09005KT 04/M09 A3023 RMK A01 T00401088  RH  039%=      5-min Rain = 0
KLO1 130325Z 09004KT 04/M09 A3023 RMK A01 T00391088  RH  039%=      5-min Rain = 0
KLO1 130326Z 09005KT 04/M09 A3023 RMK A01 T00381088  RH  039%=      5-min Rain = 0
KLO1 130327Z 09005KT 04/M09 A3023 RMK A01 T00381088  RH  039%=      5-min Rain = 0
KLO1 130328Z 09005KT 04/M09 A3023 RMK A01 T00381087  RH  040%=      5-min Rain = 0
KLO1 130329Z 09005KT 04/M09 A3023 RMK A01 T00381088  RH  039%=      5-min Rain = 0
KLO1 130330Z 09005KT 04/M09 A3023 RMK A01 T00371088  RH  040%=      5-min Rain = 0
KLO1 130331Z 09006KT 04/M09 A3023 RMK A01 T00371088  RH  040%=      5-min Rain = 0
KLO1 130332Z 09006KT 04/M09 A3023 RMK A01 T00361087  RH  040%=      5-min Rain = 0
KLO1 130333Z 09005KT 04/M09 A3023 RMK A01 T00361088  RH  040%=      5-min Rain = 0
KLO1 130334Z 09005KT 04/M09 A3023 RMK A01 T00351088  RH  040%=      5-min Rain = 0
KLO1 130335Z 09005KT 03/M09 A3023 RMK A01 T00341088  RH  041%=      5-min Rain = 0
KLO1 130336Z 09006KT 03/M09 A3023 RMK A01 T00331089  RH  041%=      5-min Rain = 0
KLO1 130337Z 09006KT 03/M09 A3024 RMK A01 T00321090  RH  040%=      5-min Rain = 0
KLO1 130338Z 09006KT 03/M09 A3024 RMK A01 T00311090  RH  040%=      5-min Rain = 0
KLO1 130339Z 09006KT 03/M09 A3024 RMK A01 T00311090  RH  041%=      5-min Rain = 0
KLO1 130340Z 09006KT 03/M09 A3024 RMK A01 T00311090  RH  041%=      5-min Rain = 0
KLO1 130341Z 09006KT 03/M09 A3024 RMK A01 T00311090  RH  041%=      5-min Rain = 0
KLO1 130342Z 09006KT 03/M09 A3024 RMK A01 T00311088  RH  041%=      5-min Rain = 0
KLO1 130343Z 10005KT 03/M09 A3024 RMK A01 T00311088  RH  041%=      5-min Rain = 0
KLO1 130344Z 10005KT 03/M09 A3024 RMK A01 T00311089  RH  041%=      5-min Rain = 0
KLO1 130345Z 10005KT 03/M09 A3024 RMK A01 T00311089  RH  041%=      5-min Rain = 0
KLO1 130346Z 10005KT 03/M09 A3024 RMK A01 T00321088  RH  041%=      5-min Rain = 0
KLO1 130347Z 10005KT 03/M09 A3024 RMK A01 T00321088  RH  041%=      5-min Rain = 0
KLO1 130348Z 10005KT 03/M09 A3024 RMK A01 T00331088  RH  041%=      5-min Rain = 0
KLO1 130349Z 10005KT 03/M09 A3024 RMK A01 T00331088  RH  041%=      5-min Rain = 0
KLO1 130350Z 10005KT 03/M09 A3024 RMK A01 T00331088  RH  041%=      5-min Rain = 0
KLO1 130351Z 10006KT 03/M09 A3024 RMK A01 T00331089  RH  040%=      5-min Rain = 0
KLO1 130352Z 10006KT 03/M09 A3024 RMK A01 T00321090  RH  040%=      5-min Rain = 0
KLO1 130353Z 10006KT 03/M09 A3024 RMK A01 T00311090  RH  040%=      5-min Rain = 0
KLO1 130354Z 11006KT 03/M09 A3024 RMK A01 T00311090  RH  041%=      5-min Rain = 0
KLO1 130355Z 11005KT 03/M09 A3024 RMK A01 T00311090  RH  041%=      5-min Rain = 0
KLO1 130356Z 11005KT 03/M09 A3024 RMK A01 T00301091  RH  041%=      5-min Rain = 0
KLO1 130357Z 11005KT 03/M09 A3024 RMK A01 T00291092  RH  041%=      5-min Rain = 0
KLO1 130358Z 11005KT 03/M09 A3024 RMK A01 T00291092  RH  041%=      5-min Rain = 0
KLO1 130359Z 11006KT 03/M09 A3024 RMK A01 T00281092  RH  041%=      5-min Rain = 0
KLO1 130400Z 11006KT 03/M09 A3024 RMK A01 T00281092  RH  041%=      5-min Rain = 0
KLO1 130401Z 10006KT 03/M09 A3024 RMK A01 T00281092  RH  041%=      5-min Rain = 0
KLO1 130402Z 10006KT 03/M09 A3025 RMK A01 T00281092  RH  041%=      5-min Rain = 0
KLO1 130403Z 10006KT 03/M09 A3025 RMK A01 T00281092  RH  041%=      5-min Rain = 0
KLO1 130404Z 10006KT 03/M09 A3025 RMK A01 T00281092  RH  041%=      5-min Rain = 0
KLO1 130405Z 10006KT 03/M09 A3024 RMK A01 T00271092  RH  041%=      5-min Rain = 0
KLO1 130406Z 10006KT 03/M09 A3024 RMK A01 T00271092  RH  041%=      5-min Rain = 0
KLO1 130407Z 10006KT 03/M09 A3025 RMK A01 T00271092  RH  041%=      5-min Rain = 0
KLO1 130408Z 11005KT 03/M09 A3025 RMK A01 T00261093  RH  041%=      5-min Rain = 0
KLO1 130409Z 11005KT 03/M09 A3025 RMK A01 T00261093  RH  041%=      5-min Rain = 0
KLO1 130410Z 11006KT 03/M09 A3025 RMK A01 T00251094  RH  041%=      5-min Rain = 0
KLO1 130411Z 11006KT 02/M10 A3025 RMK A01 T00241095  RH  041%=      5-min Rain = 0
KLO1 130412Z 11006KT 02/M10 A3025 RMK A01 T00231095  RH  041%=      5-min Rain = 0
KLO1 130413Z 11006KT 02/M10 A3025 RMK A01 T00231096  RH  041%=      5-min Rain = 0
KLO1 130414Z 12006KT 02/M10 A3025 RMK A01 T00221096  RH  041%=      5-min Rain = 0
KLO1 130415Z 12006KT 02/M10 A3025 RMK A01 T00211096  RH  041%=      5-min Rain = 0
KLO1 130416Z 12006KT 02/M10 A3025 RMK A01 T00211096  RH  042%=      5-min Rain = 0
KLO1 130417Z 12006KT 02/M10 A3025 RMK A01 T00201097  RH  042%=      5-min Rain = 0
KLO1 130418Z 11006KT 02/M10 A3025 RMK A01 T00201097  RH  042%=      5-min Rain = 0
KLO1 130419Z 11006KT 02/M10 A3025 RMK A01 T00201095  RH  042%=      5-min Rain = 0
KLO1 130420Z 11006KT 02/M09 A3025 RMK A01 T00211094  RH  042%=      5-min Rain = 0
KLO1 130421Z 11006KT 02/M09 A3025 RMK A01 T00221094  RH  042%=      5-min Rain = 0
KLO1 130422Z 11007KT 02/M09 A3025 RMK A01 T00231093  RH  042%=      5-min Rain = 0
KLO1 130423Z 11007KT 02/M09 A3025 RMK A01 T00231093  RH  042%=      5-min Rain = 0
KLO1 130424Z 10007KT 02/M09 A3025 RMK A01 T00231094  RH  042%=      5-min Rain = 0
KLO1 130425Z 10006KT 02/M09 A3025 RMK A01 T00231093  RH  042%=      5-min Rain = 0
KLO1 130426Z 10006KT 02/M09 A3025 RMK A01 T00231094  RH  042%=      5-min Rain = 0
KLO1 130427Z 10006KT 02/M09 A3025 RMK A01 T00231094  RH  042%=      5-min Rain = 0
KLO1 130428Z 10006KT 02/M09 A3025 RMK A01 T00231094  RH  042%=      5-min Rain = 0
KLO1 130429Z 10006KT 02/M09 A3025 RMK A01 T00231093  RH  042%=      5-min Rain = 0
KLO1 130430Z 10005KT 02/M09 A3025 RMK A01 T00231094  RH  042%=      5-min Rain = 0
KLO1 130431Z 10005KT 02/M09 A3025 RMK A01 T00231094  RH  042%=      5-min Rain = 0
KLO1 130432Z 10004KT 02/M10 A3025 RMK A01 T00221095  RH  042%=      5-min Rain = 0
KLO1 130433Z 10004KT 02/M10 A3025 RMK A01 T00221095  RH  042%=      5-min Rain = 0
KLO1 130434Z 09003KT 02/M09 A3025 RMK A01 T00221094  RH  042%=      5-min Rain = 0
KLO1 130435Z 09002KT 02/M09 A3025 RMK A01 T00211094  RH  042%=      5-min Rain = 0
KLO1 130436Z 08002KT 02/M10 A3025 RMK A01 T00201095  RH  042%=      5-min Rain = 0
KLO1 130437Z 09002KT 02/M09 A3025 RMK A01 T00201094  RH  043%=      5-min Rain = 0
KLO1 130438Z 09002KT 02/M09 A3025 RMK A01 T00211093  RH  043%=      5-min Rain = 0
KLO1 130439Z 09003KT 02/M09 A3025 RMK A01 T00201093  RH  043%=      5-min Rain = 0
KLO1 130440Z 09003KT 02/M09 A3025 RMK A01 T00201093  RH  043%=      5-min Rain = 0
KLO1 130441Z 09003KT 02/M09 A3025 RMK A01 T00211092  RH  043%=      5-min Rain = 0
KLO1 130442Z 09004KT 02/M09 A3025 RMK A01 T00211092  RH  043%=      5-min Rain = 0
KLO1 130443Z 09004KT 02/M09 A3025 RMK A01 T00211092  RH  043%=      5-min Rain = 0
KLO1 130444Z 10004KT 02/M09 A3025 RMK A01 T00211091  RH  043%=      5-min Rain = 0
KLO1 130445Z 10004KT 02/M09 A3025 RMK A01 T00211092  RH  043%=      5-min Rain = 0
KLO1 130446Z 10004KT 02/M09 A3025 RMK A01 T00201093  RH  043%=      5-min Rain = 0
KLO1 130447Z 10004KT 02/M09 A3025 RMK A01 T00201093  RH  043%=      5-min Rain = 0
KLO1 130448Z 10004KT 02/M09 A3025 RMK A01 T00201092  RH  043%=      5-min Rain = 0
KLO1 130449Z 10004KT 02/M09 A3025 RMK A01 T00191094  RH  043%=      5-min Rain = 0
KLO1 130450Z 10004KT 02/M10 A3025 RMK A01 T00181095  RH  043%=      5-min Rain = 0
KLO1 130451Z 10004KT 02/M10 A3025 RMK A01 T00171095  RH  043%=      5-min Rain = 0
KLO1 130452Z 09004KT 02/M09 A3025 RMK A01 T00171093  RH  044%=      5-min Rain = 0
KLO1 130453Z 09003KT 02/M09 A3025 RMK A01 T00171092  RH  044%=      5-min Rain = 0
KLO1 130454Z 09003KT 02/M09 A3025 RMK A01 T00171092  RH  044%=      5-min Rain = 0
KLO1 130455Z 09003KT 02/M09 A3025 RMK A01 T00161092  RH  044%=      5-min Rain = 0
KLO1 130456Z 09003KT 02/M09 A3025 RMK A01 T00161093  RH  044%=      5-min Rain = 0
KLO1 130457Z 09003KT 02/M09 A3025 RMK A01 T00161093  RH  044%=      5-min Rain = 0
KLO1 130458Z 09003KT 02/M09 A3025 RMK A01 T00161092  RH  045%=      5-min Rain = 0
KLO1 130459Z 09004KT 02/M09 A3025 RMK A01 T00151092  RH  045%=      5-min Rain = 0
KLO1 130500Z 09004KT 02/M09 A3025 RMK A01 T00151092  RH  045%=      5-min Rain = 0
KLO1 130501Z 09004KT 02/M09 A3025 RMK A01 T00151092  RH  045%=      5-min Rain = 0
KLO1 130502Z 09005KT 02/M09 A3025 RMK A01 T00151090  RH  045%=      5-min Rain = 0
KLO1 130503Z 10005KT 02/M09 A3025 RMK A01 T00161090  RH  045%=      5-min Rain = 0
KLO1 130504Z 10005KT 02/M09 A3025 RMK A01 T00171091  RH  044%=      5-min Rain = 0
KLO1 130505Z 10005KT 02/M09 A3025 RMK A01 T00171093  RH  044%=      5-min Rain = 0
KLO1 130506Z 10005KT 02/M09 A3025 RMK A01 T00161094  RH  044%=      5-min Rain = 0
KLO1 130507Z 10005KT 02/M09 A3025 RMK A01 T00151094  RH  044%=      5-min Rain = 0
KLO1 130508Z 10005KT 02/M10 A3025 RMK A01 T00151095  RH  044%=      5-min Rain = 0
KLO1 130509Z 10005KT 01/M10 A3025 RMK A01 T00141095  RH  044%=      5-min Rain = 0
KLO1 130510Z 10006KT 02/M09 A3025 RMK A01 T00151092  RH  045%=      5-min Rain = 0
KLO1 130511Z 10005KT 02/M09 A3025 RMK A01 T00151093  RH  044%=      5-min Rain = 0
KLO1 130512Z 10006KT 02/M09 A3025 RMK A01 T00151094  RH  044%=      5-min Rain = 0
KLO1 130513Z 10006KT 02/M09 A3024 RMK A01 T00151094  RH  044%=      5-min Rain = 0
KLO1 130514Z 10007KT 02/M09 A3024 RMK A01 T00161094  RH  044%=      5-min Rain = 0
KLO1 130515Z 10007KT 02/M10 A3024 RMK A01 T00161095  RH  044%=      5-min Rain = 0
KLO1 130516Z 10007KT 02/M10 A3024 RMK A01 T00151095  RH  044%=      5-min Rain = 0
KLO1 130517Z 10007KT 02/M10 A3024 RMK A01 T00151095  RH  044%=      5-min Rain = 0
KLO1 130518Z 11006KT 02/M10 A3024 RMK A01 T00161095  RH  044%=      5-min Rain = 0
KLO1 130519Z 11005KT 02/M10 A3024 RMK A01 T00151097  RH  043%=      5-min Rain = 0
KLO1 130520Z 11005KT 01/M10 A3024 RMK A01 T00141099  RH  043%=      5-min Rain = 0
KLO1 130521Z 11005KT 01/M10 A3024 RMK A01 T00131100  RH  043%=      5-min Rain = 0
KLO1 130522Z 11006KT 01/M10 A3024 RMK A01 T00111100  RH  043%=      5-min Rain = 0
KLO1 130523Z 10006KT 01/M10 A3024 RMK A01 T00111100  RH  044%=      5-min Rain = 0
KLO1 130524Z 10005KT 01/M10 A3024 RMK A01 T00111098  RH  044%=      5-min Rain = 0
KLO1 130525Z 11005KT 01/M10 A3024 RMK A01 T00111097  RH  044%=      5-min Rain = 0
KLO1 130526Z 11004KT 01/M10 A3024 RMK A01 T00111097  RH  044%=      5-min Rain = 0
KLO1 130527Z 11004KT 01/M10 A3024 RMK A01 T00111098  RH  044%=      5-min Rain = 0
KLO1 130528Z 10004KT 01/M10 A3024 RMK A01 T00111096  RH  045%=      5-min Rain = 0
KLO1 130529Z 11005KT 01/M09 A3024 RMK A01 T00121094  RH  045%=      5-min Rain = 0
KLO1 130530Z 10005KT 01/M09 A3024 RMK A01 T00131092  RH  045%=      5-min Rain = 0
KLO1 130531Z 10005KT 02/M09 A3024 RMK A01 T00151091  RH  045%=      5-min Rain = 0
KLO1 130532Z 10005KT 02/M09 A3025 RMK A01 T00161090  RH  045%=      5-min Rain = 0
KLO1 130533Z 10004KT 02/M09 A3025 RMK A01 T00181089  RH  045%=      5-min Rain = 0
KLO1 130534Z 10004KT 02/M09 A3025 RMK A01 T00181089  RH  045%=      5-min Rain = 0
KLO1 130535Z 11003KT 02/M09 A3025 RMK A01 T00181090  RH  045%=      5-min Rain = 0
KLO1 130536Z 11003KT 02/M09 A3025 RMK A01 T00191090  RH  045%=      5-min Rain = 0
KLO1 130537Z 10002KT 02/M09 A3025 RMK A01 T00181091  RH  044%=      5-min Rain = 0
KLO1 130538Z 10002KT 02/M09 A3025 RMK A01 T00181091  RH  044%=      5-min Rain = 0
KLO1 130539Z 10002KT 02/M09 A3025 RMK A01 T00181090  RH  045%=      5-min Rain = 0
KLO1 130540Z 11002KT 02/M09 A3025 RMK A01 T00171090  RH  045%=      5-min Rain = 0
KLO1 130541Z 11002KT 02/M09 A3025 RMK A01 T00171089  RH  045%=      5-min Rain = 0
KLO1 130542Z 11002KT 02/M09 A3025 RMK A01 T00171089  RH  045%=      5-min Rain = 0
KLO1 130543Z 11002KT 02/M09 A3026 RMK A01 T00171088  RH  046%=      5-min Rain = 0
KLO1 130544Z 11001KT 02/M09 A3026 RMK A01 T00171088  RH  046%=      5-min Rain = 0
KLO1 130545Z 12001KT 02/M09 A3026 RMK A01 T00171089  RH  045%=      5-min Rain = 0
KLO1 130546Z 13001KT 02/M09 A3026 RMK A01 T00181089  RH  045%=      5-min Rain = 0
KLO1 130547Z 14001KT 02/M09 A3026 RMK A01 T00181090  RH  045%=      5-min Rain = 0
KLO1 130548Z 14002KT 02/M09 A3026 RMK A01 T00181090  RH  045%=      5-min Rain = 0
KLO1 130549Z 13002KT 02/M09 A3026 RMK A01 T00191089  RH  045%=      5-min Rain = 0
KLO1 130550Z 13002KT 02/M09 A3026 RMK A01 T00191090  RH  044%=      5-min Rain = 0
KLO1 130551Z 14003KT 02/M09 A3026 RMK A01 T00191091  RH  044%=      5-min Rain = 0
KLO1 130552Z 14003KT 02/M09 A3026 RMK A01 T00191091  RH  044%=      5-min Rain = 0
KLO1 130553Z 15003KT 02/M09 A3026 RMK A01 T00171094  RH  043%=      5-min Rain = 0
KLO1 130554Z 14003KT 01/M10 A3026 RMK A01 T00141099  RH  043%=      5-min Rain = 0
KLO1 130555Z 14003KT 01/M10 A3026 RMK A01 T00111101  RH  043%=      5-min Rain = 0
KLO1 130556Z 13003KT 01/M10 A3026 RMK A01 T00091098  RH  044%=      5-min Rain = 0
KLO1 130557Z 13004KT 01/M09 A3026 RMK A01 T00101092  RH  046%=      5-min Rain = 0
KLO1 130558Z 14003KT 01/M09 A3026 RMK A01 T00121089  RH  047%=      5-min Rain = 0
KLO1 130559Z 14003KT 01/M09 A3026 RMK A01 T00121088  RH  047%=      5-min Rain = 0

Page generated in 0.1691 seconds.